KC5DAQ-24 Weather Reports


Display with metric or nautical units.
time (UTC)temp
F
wind
direction
speed
MPH
gust
MPH
rain 1hr
in
rain 24hr
in
rain mn
in
humidity
%
barometer
mb
20260905042632 84 0 1.0 3.0 0.00 0.02 0.02 84 1011.8
20260905042532 84 0 1.0 3.0 0.00 0.02 0.02 84 1012.0
20260905042432 84 0 1.0 3.0 0.00 0.02 0.02 84 1012.0
20260905042333 84 0 1.0 4.0 0.00 0.02 0.02 84 1012.0
20260905042232 84 0 1.0 5.0 0.00 0.02 0.02 84 1012.0
20260905042132 84 0 1.0 5.0 0.00 0.02 0.02 84 1012.0
20260905042030 84 0 1.0 5.0 0.00 0.02 0.02 85 1011.9
20260905041932 84 0 1.0 5.0 0.00 0.02 0.02 84 1012.0
20260905041832 84 0 1.0 5.0 0.00 0.02 0.02 84 1012.0
20260905041731 84 0 0.0 5.0 0.00 0.02 0.02 84 1012.1
20260905041631 84 0 1.0 5.0 0.00 0.02 0.02 84 1012.0
20260905041518 84 0 2.0 5.0 0.00 0.02 0.02 84 1012.1
20260905041419 84 0 3.0 5.0 0.00 0.02 0.02 84 1012.0
20260905041318 84 0 3.0 5.0 0.00 0.02 0.02 84 1012.1
20260905041218 84 0 4.0 5.0 0.00 0.02 0.02 84 1012.1
20260905041118 84 0 2.0 3.0 0.00 0.02 0.02 84 1012.0
20260905041019 84 0 2.0 3.0 0.00 0.02 0.02 84 1012.0
20260905040919 84 0 2.0 3.0 0.00 0.02 0.02 84 1012.1
20260905040818 84 0 2.0 3.0 0.00 0.02 0.02 84 1012.1
20260905040707 84 0 2.0 3.0 0.00 0.02 0.02 84 1012.1
20260905040604 84 0 2.0 3.0 0.00 0.02 0.02 84 1012.1
20260905040504 84 0 1.0 3.0 0.00 0.02 0.02 84 1012.1
20260905040404 84 0 0.0 2.0 0.00 0.02 0.02 84 1012.1
20260905040302 84 0 0.0 2.0 0.00 0.02 0.02 84 1012.1
20260905040202 84 0 0.0 2.0 0.00 0.02 0.02 84 1012.2
20260905040104 84 0 0.0 2.0 0.00 0.02 0.02 84 1012.2
20260905040004 84 0 0.0 2.0 0.00 0.02 0.02 84 1012.2
20260905035903 84 0 0.0 2.0 0.00 0.02 0.02 84 1012.3
20260905035802 84 0 0.0 2.0 0.00 0.02 0.02 84 1012.2
20260905035703 84 0 0.0 3.0 0.00 0.02 0.02 84 1012.2
20260905035604 84 0 0.0 3.0 0.00 0.02 0.02 84 1012.2
20260905035504 84 0 0.0 3.0 0.00 0.02 0.02 84 1012.3
20260905035402 84 0 0.0 3.0 0.00 0.02 0.02 83 1012.3
20260905035306 84 0 2.0 3.0 0.00 0.02 0.02 83 1012.2
20260905035203 84 0 2.0 3.0 0.00 0.02 0.02 83 1012.3
20260905035104 84 0 2.0 5.0 0.00 0.02 0.02 83 1012.2
20260905035004 84 0 2.0 5.0 0.00 0.02 0.02 83 1012.2
20260905034903 84 0 2.0 5.0 0.00 0.02 0.02 83 1012.2
20260905034803 84 0 2.0 5.0 0.00 0.02 0.02 83 1012.2
20260905034703 84 0 2.0 5.0 0.00 0.02 0.02 83 1012.3
20260905034602 84 0 0.0 5.0 0.00 0.02 0.02 83 1012.2
20260905034502 84 0 1.0 5.0 0.00 0.02 0.02 83 1012.3
20260905034403 84 0 2.0 5.0 0.00 0.02 0.02 83 1012.3
20260905034305 84 0 2.0 5.0 0.00 0.02 0.02 83 1012.3
20260905034204 84 0 1.0 5.0 0.00 0.02 0.02 83 1012.3
20260905034102 84 0 0.0 0.0 0.00 0.02 0.02 83 1012.3
20260905034002 84 0 0.0 0.0 0.00 0.02 0.02 83 1012.2
20260905033903 84 0 0.0 0.0 0.00 0.02 0.02 83 1012.2
20260905033804 84 0 0.0 2.0 0.00 0.02 0.02 83 1012.3
20260905033704 84 0 0.0 2.0 0.00 0.02 0.02 83 1012.2
20260905033603 84 0 0.0 2.0 0.00 0.02 0.02 83 1012.2
20260905033503 84 0 0.0 3.0 0.00 0.02 0.02 83 1012.1
20260905033403 84 0 0.0 4.0 0.00 0.02 0.02 83 1012.2
20260905033304 84 0 0.0 4.0 0.00 0.02 0.02 83 1012.2
20260905033203 84 0 0.0 4.0 0.00 0.02 0.02 83 1012.3
20260905033103 84 0 0.0 4.0 0.00 0.02 0.02 83 1012.2
20260905033004 84 0 0.0 4.0 0.00 0.02 0.02 83 1012.1
20260905032903 84 0 0.0 4.0 0.00 0.02 0.02 83 1012.2
20260905032802 84 0 0.0 4.0 0.00 0.02 0.02 83 1012.3
20260905032703 84 0 1.0 4.0 0.00 0.02 0.02 83 1012.2
20260905032604 84 0 2.0 5.0 0.00 0.02 0.02 83 1012.2
20260905032503 84 0 2.0 5.0 0.00 0.02 0.02 83 1012.2
20260905032403 85 0 2.0 5.0 0.00 0.02 0.02 83 1012.3
20260905032306 85 0 1.0 5.0 0.00 0.02 0.02 83 1012.2
20260905032203 85 0 0.0 5.0 0.00 0.02 0.02 83 1012.3
20260905032103 85 0 2.0 5.0 0.00 0.02 0.02 82 1012.3
20260905032004 85 0 2.0 5.0 0.00 0.02 0.02 82 1012.3
20260905031903 85 0 2.0 5.0 0.00 0.02 0.02 82 1012.3
20260905031804 85 0 2.0 5.0 0.00 0.02 0.02 82 1012.4
20260905031650 85 0 2.0 5.0 0.00 0.02 0.02 82 1012.4
20260905031549 85 0 1.0 5.0 0.00 0.02 0.02 82 1012.3
20260905031449 85 0 2.0 5.0 0.00 0.02 0.02 82 1012.4
20260905031345 85 0 3.0 5.0 0.00 0.02 0.02 82 1012.4
20260905031239 85 0 3.0 5.0 0.00 0.02 0.02 82 1012.4
20260905031137 85 0 2.0 5.0 0.00 0.02 0.02 82 1012.4
20260905031036 85 0 1.0 5.0 0.00 0.02 0.02 82 1012.4
20260905030936 85 0 1.0 5.0 0.00 0.02 0.02 82 1012.4
20260905030833 85 0 2.0 5.0 0.00 0.02 0.02 82 1012.4
20260905030732 85 0 2.0 5.0 0.00 0.02 0.02 82 1012.3
20260905030631 85 0 2.0 5.0 0.00 0.02 0.02 82 1012.3
20260905030532 85 0 2.0 5.0 0.00 0.02 0.02 82 1012.3
20260905030432 85 0 2.0 5.0 0.00 0.02 0.02 82 1012.2
20260905030332 85 0 2.0 5.0 0.00 0.02 0.02 82 1012.2
20260905030232 85 0 1.0 4.0 0.00 0.02 0.02 82 1012.2
20260905030131 85 0 0.0 4.0 0.00 0.02 0.02 82 1012.2
20260905030033 85 0 0.0 4.0 0.00 0.02 0.02 82 1012.2
20260905025931 85 0 1.0 5.0 0.00 0.02 0.02 82 1012.2
20260905025831 85 0 1.0 5.0 0.00 0.02 0.02 82 1012.2
20260905025733 85 0 1.0 5.0 0.00 0.02 0.02 82 1012.2
20260905025631 85 0 2.0 5.0 0.00 0.02 0.02 81 1012.2
20260905025531 85 0 3.0 5.0 0.00 0.02 0.02 81 1012.1
20260905025432 85 0 2.0 5.0 0.00 0.02 0.02 81 1012.1
20260905025332 85 0 2.0 5.0 0.00 0.02 0.02 81 1012.2
20260905025231 85 0 2.0 5.0 0.00 0.02 0.02 81 1012.2
20260905025132 85 0 2.0 5.0 0.00 0.02 0.02 81 1012.2
20260905025032 85 0 2.0 5.0 0.00 0.02 0.02 81 1012.2
20260905024932 85 0 0.0 0.0 0.00 0.02 0.02 81 1012.2
20260905024831 85 0 0.0 0.0 0.00 0.02 0.02 81 1012.2
20260905024732 85 0 0.0 0.0 0.00 0.02 0.02 81 1012.2
20260905024631 85 0 0.0 2.0 0.00 0.02 0.02 81 1012.2
20260905024532 85 0 0.0 5.0 0.00 0.02 0.02 81 1012.2
20260905024431 85 0 0.0 5.0 0.00 0.02 0.02 81 1012.2
20260905024331 85 0 0.0 5.0 0.00 0.02 0.02 81 1012.2
20260905024232 85 0 0.0 5.0 0.00 0.02 0.02 81 1012.2
20260905024132 85 0 0.0 5.0 0.00 0.02 0.02 81 1012.1
20260905024032 85 0 0.0 5.0 0.00 0.02 0.02 80 1012.2
20260905023925 85 0 0.0 5.0 0.00 0.02 0.02 80 1012.1
20260905023824 85 0 1.0 5.0 0.00 0.02 0.02 81 1012.1
20260905023716 85 0 2.0 5.0 0.00 0.02 0.02 80 1012.1
20260905023613 85 0 1.0 3.0 0.00 0.02 0.02 80 1012.0
20260905023504 85 0 0.0 0.0 0.00 0.02 0.02 80 1012.0
20260905023404 85 0 0.0 0.0 0.00 0.02 0.02 80 1012.0
20260905023303 85 0 0.0 0.0 0.00 0.02 0.02 80 1012.0
20260905023202 85 0 0.0 0.0 0.00 0.02 0.02 80 1012.1
20260905023103 85 0 0.0 0.0 0.00 0.02 0.02 80 1012.0
20260905023003 85 0 0.0 3.0 0.00 0.02 0.02 80 1012.0
20260905022902 85 0 0.0 4.0 0.00 0.02 0.02 80 1012.0
20260905022804 85 0 0.0 5.0 0.00 0.02 0.02 80 1011.9
20260905022702 85 0 0.0 5.0 0.00 0.02 0.02 80 1012.0
20260905022602 85 0 0.0 5.0 0.00 0.02 0.02 80 1011.9
20260905022503 85 0 0.0 5.0 0.00 0.02 0.02 80 1011.9
20260905022403 85 0 0.0 5.0 0.00 0.02 0.02 80 1011.9
20260905022306 85 0 0.0 5.0 0.00 0.02 0.02 80 1011.9
20260905022203 85 0 2.0 5.0 0.00 0.02 0.02 81 1011.9
20260905022103 85 0 2.0 5.0 0.00 0.02 0.02 81 1011.8
20260905022004 85 0 3.0 5.0 0.00 0.02 0.02 81 1011.8
20260905021903 85 0 3.0 5.0 0.00 0.02 0.02 81 1011.8
20260905021803 85 0 1.0 4.0 0.00 0.02 0.02 81 1011.8
20260905021704 85 0 1.0 4.0 0.00 0.02 0.02 81 1011.8
20260905021604 85 0 1.0 4.0 0.00 0.02 0.02 81 1011.9
20260905021505 85 0 1.0 4.0 0.00 0.02 0.02 81 1011.8
20260905021404 85 0 1.0 4.0 0.00 0.02 0.02 81 1011.8
20260905021302 85 0 1.0 4.0 0.00 0.02 0.02 81 1011.8
20260905021204 85 0 1.0 4.0 0.00 0.02 0.02 81 1011.9
20260905021103 85 0 0.0 4.0 0.00 0.02 0.02 81 1011.8
20260905021003 85 0 2.0 4.0 0.00 0.02 0.02 81 1011.8
20260905020902 85 0 2.0 4.0 0.00 0.02 0.02 81 1011.7
20260905020802 85 0 2.0 3.0 0.00 0.02 0.02 81 1011.8
20260905020704 85 0 1.0 3.0 0.00 0.02 0.02 80 1011.7
20260905020604 85 0 1.0 3.0 0.00 0.02 0.02 80 1011.7
20260905020503 85 0 1.0 3.0 0.00 0.02 0.02 80 1011.7
20260905020403 85 0 1.0 3.0 0.00 0.02 0.02 80 1011.7
20260905020234 85 0 2.0 3.0 0.00 0.02 0.02 80 1011.7
20260905020131 85 0 2.0 3.0 0.00 0.02 0.02 80 1011.7
20260905020030 85 0 2.0 3.0 0.00 0.02 0.02 80 1011.7
20260905015933 85 0 2.0 3.0 0.00 0.02 0.02 80 1011.7
20260905015832 85 0 1.0 3.0 0.00 0.02 0.02 80 1011.7
20260905015731 85 0 0.0 3.0 0.00 0.02 0.02 80 1011.7
20260905015631 85 0 0.0 0.0 0.00 0.02 0.02 80 1011.7
20260905015532 85 0 0.0 0.0 0.00 0.02 0.02 80 1011.6
20260905015432 85 0 0.0 0.0 0.00 0.02 0.02 80 1011.6
20260905015332 85 0 0.0 0.0 0.00 0.02 0.02 80 1011.6
20260905015233 85 0 0.0 0.0 0.00 0.02 0.02 80 1011.6
20260905015131 85 0 0.0 0.0 0.00 0.02 0.02 80 1011.6
20260905015032 85 0 0.0 0.0 0.00 0.02 0.02 79 1011.6
20260905014932 84 0 0.0 0.0 0.00 0.02 0.02 79 1011.6
20260905014833 84 0 0.0 0.0 0.00 0.02 0.02 79 1011.6
20260905014732 84 0 0.0 0.0 0.00 0.02 0.02 79 1011.5
20260905014632 84 0 0.0 1.0 0.00 0.02 0.02 79 1011.5
20260905014532 84 0 0.0 1.0 0.00 0.02 0.02 79 1011.5
20260905014432 84 0 0.0 2.0 0.00 0.02 0.02 79 1011.5
20260905014331 84 0 0.0 2.0 0.00 0.02 0.02 79 1011.5
20260905014232 84 0 0.0 2.0 0.00 0.02 0.02 79 1011.5
20260905014131 84 0 0.0 2.0 0.00 0.02 0.02 79 1011.5
20260905014032 84 0 0.0 2.0 0.00 0.02 0.02 79 1011.5
20260905013932 84 0 0.0 2.0 0.00 0.02 0.02 79 1011.5
20260905013832 84 0 0.0 2.0 0.00 0.02 0.02 79 1011.5
20260905013733 84 0 0.0 2.0 0.00 0.02 0.02 79 1011.4
20260905013631 84 0 0.0 2.0 0.00 0.02 0.02 79 1011.5
20260905013533 84 0 0.0 2.0 0.00 0.02 0.02 79 1011.4
20260905013433 84 0 0.0 0.0 0.00 0.02 0.02 79 1011.5
20260905013332 84 0 0.0 2.0 0.00 0.02 0.02 79 1011.5
20260905013232 85 0 0.0 2.0 0.00 0.02 0.02 79 1011.4
20260905013131 85 0 0.0 2.0 0.00 0.02 0.02 79 1011.4
20260905013031 85 0 0.0 2.0 0.00 0.02 0.02 79 1011.4
20260905012932 85 293 0.0 3.0 0.00 0.02 0.02 79 1011.3
20260905012832 85 293 0.0 3.0 0.00 0.02 0.02 79 1011.3
20260905012732 85 293 0.0 3.0 0.00 0.02 0.02 79 1011.3
20260905012633 85 293 0.0 3.0 0.00 0.02 0.02 79 1011.3
20260905012532 85 293 0.0 3.0 0.00 0.02 0.02 79 1011.3
20260905012431 85 293 0.0 4.0 0.00 0.02 0.02 79 1011.3
20260905012333 85 296 0.0 4.0 0.00 0.02 0.02 79 1011.3
20260905012234 85 296 1.0 4.0 0.00 0.02 0.02 79 1011.3
20260905012132 85 298 2.0 4.0 0.00 0.02 0.02 79 1011.3
20260905012032 85 295 2.0 4.0 0.00 0.02 0.02 79 1011.3
20260905011931 85 293 2.0 4.0 0.00 0.02 0.02 79 1011.3
20260905011833 86 292 0.0 4.0 0.00 0.02 0.02 79 1011.3
20260905011731 86 292 0.0 4.0 0.00 0.02 0.02 79 1011.3
20260905011632 86 293 2.0 4.0 0.00 0.02 0.02 78 1011.2
20260905011533 86 292 2.0 4.0 0.00 0.02 0.02 78 1011.3
20260905011432 86 293 1.0 4.0 0.00 0.02 0.02 78 1011.3
20260905011332 87 293 0.0 4.0 0.00 0.02 0.02 77 1011.2
20260905011231 87 289 0.0 4.0 0.00 0.02 0.02 77 1011.2
20260905011131 87 285 1.0 4.0 0.00 0.02 0.02 76 1011.2
20260905011031 87 286 2.0 4.0 0.00 0.02 0.02 76 1011.2
20260905010931 87 313 3.0 4.0 0.00 0.02 0.02 75 1011.1
20260905010831 87 292 3.0 4.0 0.00 0.02 0.02 75 1011.2
20260905010732 87 241 2.0 3.0 0.00 0.02 0.02 74 1011.1
20260905010630 87 0 2.0 3.0 0.00 0.02 0.02 73 1011.2
20260905010532 88 214 2.0 3.0 0.00 0.02 0.02 73 1011.2
20260905010413 88 214 2.0 3.0 0.00 0.02 0.02 73 1011.2
20260905010312 88 214 2.0 4.0 0.00 0.02 0.02 73 1011.1
20260905010211 88 214 2.0 4.0 0.00 0.02 0.02 73 1011.2
20260905010111 88 214 2.0 4.0 0.00 0.02 0.02 73 1011.1
20260905010012 88 214 2.0 4.0 0.00 0.02 0.02 73 1011.1
20260905005913 88 214 0.0 4.0 0.00 0.02 0.02 72 1011.1
20260905005813 88 214 0.0 5.0 0.00 0.02 0.02 72 1011.2
20260905005713 88 214 0.0 5.0 0.00 0.02 0.02 72 1011.1
20260905005614 88 214 0.0 5.0 0.00 0.02 0.02 72 1011.1
20260905005513 88 214 1.0 6.0 0.00 0.02 0.02 72 1011.1
20260905005413 88 214 3.0 6.0 0.00 0.02 0.02 72 1011.1
20260905005311 88 213 3.0 6.0 0.00 0.02 0.02 72 1011.1
20260905005214 88 213 3.0 6.0 0.00 0.02 0.02 72 1011.1
20260905005112 88 213 3.0 6.0 0.00 0.02 0.02 72 1011.0
20260905005013 88 213 3.0 6.0 0.00 0.02 0.02 72 1011.1
20260905004911 88 213 3.0 6.0 0.00 0.02 0.02 72 1011.1
20260905004811 89 212 2.0 6.0 0.00 0.02 0.02 72 1011.1
20260905004712 89 207 3.0 6.0 0.00 0.02 0.02 72 1011.2
20260905004611 89 214 4.0 6.0 0.00 0.02 0.02 72 1011.2
20260905004512 89 193 3.0 4.0 0.00 0.02 0.02 72 1011.2
20260905004413 89 164 1.0 3.0 0.00 0.02 0.02 71 1011.2
20260905004312 89 164 1.0 3.0 0.00 0.02 0.02 71 1011.2
20260905004210 89 164 1.0 5.0 0.00 0.02 0.02 71 1011.2
20260905004110 89 164 1.0 6.0 0.00 0.02 0.02 71 1011.2
20260905004010 89 164 1.0 6.0 0.00 0.02 0.02 71 1011.1
20260905003910 89 164 1.0 6.0 0.00 0.02 0.02 71 1011.1
20260905003810 89 164 1.0 6.0 0.00 0.02 0.02 71 1011.1
20260905003711 89 164 1.0 6.0 0.00 0.02 0.02 71 1011.0
20260905003611 89 164 1.0 6.0 0.00 0.02 0.02 71 1011.0
20260905003510 89 162 2.0 6.0 0.00 0.02 0.02 71 1010.9
20260905003409 89 162 2.0 6.0 0.00 0.02 0.02 71 1011.0
20260905003312 89 169 3.0 6.0 0.00 0.02 0.02 71 1011.1
20260905003210 89 197 3.0 6.0 0.00 0.02 0.02 71 1011.0
20260905003109 89 142 3.0 6.0 0.00 0.02 0.02 71 1011.1
20260905003010 89 175 1.0 4.0 0.00 0.02 0.02 71 1011.0
20260905002910 89 171 2.0 4.0 0.00 0.02 0.02 72 1011.1
20260905002809 89 171 3.0 4.0 0.00 0.02 0.02 71 1011.0
20260905002710 89 157 4.0 4.0 0.00 0.02 0.02 72 1011.0
20260905002610 0 0.0 0.0 0.00 0.02 0.02 1011.0
20260905002510 0 0.0 0.0 0.00 0.02 0.02 1010.9
20260905002409 0 0.0 0.0 0.00 0.02 0.02 1010.9
20260905002309 0 0.0 0.0 0.00 0.02 0.02 1010.8
20260905002209 0 0.0 0.0 0.00 0.02 0.02 1010.7
20260905002110 0 0.0 0.0 0.00 0.02 0.02 1010.8
20260905002009 0 0.0 0.0 0.00 0.02 0.02 1010.7
20260905001905 0 0.0 0.0 0.00 0.02 0.02 1010.6
20260905001805 0 0.0 0.0 0.00 0.02 0.02 1010.5
20260905001705 0 0.0 0.0 0.00 0.02 0.02 1010.5
20260905001605 0 0.0 0.0 0.00 0.02 0.02 1010.5
20260905001505 0 0.0 0.0 0.00 0.02 0.02 1010.5
20260905001403 0 0.0 0.0 0.00 0.02 0.02 1010.4
20260905001304 0 0.0 0.0 0.00 0.02 0.02 1010.4
20260905001203 0 0.0 0.0 0.00 0.02 0.02 1010.4
20260905001105 0 0.0 0.0 0.00 0.02 0.02 1010.5
20260905001004 0 0.0 0.0 0.00 0.02 0.02 1010.4
20260905000903 0 0.0 0.0 0.00 0.02 0.02 1010.4
20260905000803 89 110 2.0 2.0 0.00 0.02 0.02 72 1010.5
20260905000703 89 110 2.0 3.0 0.00 0.02 0.02 72 1010.6
20260905000604 89 110 2.0 3.0 0.00 0.02 0.02 72 1010.6
20260905000502 89 110 2.0 4.0 0.00 0.02 0.02 72 1010.6
20260905000402 89 110 2.0 4.0 0.00 0.02 0.02 72 1010.5
20260905000303 89 110 2.0 5.0 0.00 0.02 0.02 72 1010.6
20260905000201 89 110 2.0 5.0 0.00 0.02 0.02 72 1010.6
20260905000101 89 110 2.0 5.0 0.00 0.02 0.02 72 1010.6
20260905000001 89 110 2.0 5.0 0.00 0.02 0.02 72 1010.6
20260904235900 89 110 2.0 5.0 0.00 0.02 0.02 72 1010.6
20260904235759 89 107 1.0 5.0 0.00 0.02 0.02 72 1010.6
20260904235659 90 140 2.0 5.0 0.00 0.02 0.02 72 1010.6
20260904235559 89 140 2.0 5.0 0.00 0.02 0.02 72 1010.7
20260904235500 90 168 2.0 6.0 0.00 0.02 0.02 72 1010.6
20260904235400 90 178 2.0 6.0 0.00 0.02 0.02 72 1010.6
20260904235259 89 179 2.0 10.0 0.00 0.02 0.02 71 1010.5
20260904235201 90 161 2.0 10.0 0.00 0.02 0.02 71 1010.6
20260904235059 90 147 2.0 10.0 0.00 0.02 0.02 71 1010.5
20260904235000 90 147 2.0 10.0 0.00 0.02 0.02 71 1010.5
20260904234900 90 100 3.0 10.0 0.00 0.02 0.02 71 1010.5
20260904234800 90 100 3.0 10.0 0.00 0.02 0.02 71 1010.5
20260904234700 90 100 3.0 10.0 0.00 0.02 0.02 71 1010.5
20260904234600 90 89 3.0 10.0 0.00 0.02 0.02 71 1010.5
20260904234500 90 103 5.0 10.0 0.00 0.02 0.02 71 1010.6
20260904234359 90 134 5.0 10.0 0.00 0.02 0.02 70 1010.6
20260904234259 90 130 4.0 9.0 0.00 0.02 0.02 70 1010.5
20260904234200 90 87 3.0 9.0 0.00 0.02 0.02 70 1010.5
20260904234100 90 134 3.0 9.0 0.00 0.02 0.02 70 1010.5
20260904234001 90 158 4.0 9.0 0.00 0.02 0.02 70 1010.5
20260904233900 90 109 4.0 9.0 0.00 0.02 0.02 70 1010.5
20260904233800 90 100 5.0 9.0 0.00 0.02 0.02 70 1010.6
20260904233700 90 123 5.0 9.0 0.00 0.02 0.02 70 1010.4
20260904233559 90 94 5.0 9.0 0.00 0.02 0.02 70 1010.5
20260904233500 90 90 5.0 9.0 0.00 0.02 0.02 70 1010.4
20260904233400 90 80 5.0 9.0 0.00 0.02 0.02 70 1010.5
20260904233300 90 83 4.0 7.0 0.00 0.02 0.02 70 1010.5
20260904233159 90 104 5.0 7.0 0.00 0.02 0.02 70 1010.5
20260904233123 90 100 5.0 7.0 0.00 0.02 0.02 70 1010.5
20260904232959 90 94 4.0 7.0 0.00 0.02 0.02 70 1010.5
20260904232900 90 102 4.0 7.0 0.00 0.02 0.02 70 1010.5
20260904232759 90 97 3.0 7.0 0.00 0.02 0.02 70 1010.5
20260904232659 90 99 4.0 7.0 0.00 0.02 0.02 69 1010.5
20260904232559 90 116 4.0 7.0 0.00 0.02 0.02 69 1010.5
20260904232500 90 107 4.0 7.0 0.00 0.02 0.02 69 1010.5
20260904232359 91 107 4.0 7.0 0.00 0.02 0.02 69 1010.5
20260904232259 91 120 5.0 7.0 0.00 0.02 0.02 69 1010.4
20260904232158 91 83 4.0 11.0 0.00 0.02 0.02 69 1010.5
20260904232058 91 114 4.0 11.0 0.00 0.02 0.02 69 1010.5
20260904231958 91 99 4.0 11.0 0.00 0.02 0.02 69 1010.5
20260904231858 91 107 4.0 11.0 0.00 0.02 0.02 69 1010.5
20260904231800 91 103 4.0 11.0 0.00 0.02 0.02 69 1010.5
20260904231658 91 102 4.0 11.0 0.00 0.02 0.02 69 1010.5
20260904231559 91 116 4.0 11.0 0.00 0.02 0.02 69 1010.5
20260904231458 91 89 4.0 11.0 0.00 0.02 0.02 69 1010.5
20260904231400 91 103 6.0 11.0 0.00 0.02 0.02 68 1010.5
20260904231259 91 104 7.0 11.0 0.00 0.02 0.02 68 1010.5
20260904231200 91 85 5.0 10.0 0.00 0.02 0.02 68 1010.5
20260904231058 91 113 4.0 10.0 0.00 0.02 0.02 68 1010.4
20260904230959 91 102 5.0 10.0 0.00 0.02 0.02 68 1010.5
20260904230858 91 89 5.0 10.0 0.00 0.02 0.02 68 1010.5
20260904230759 91 83 4.0 10.0 0.00 0.02 0.02 68 1010.5
20260904230700 91 94 3.0 7.0 0.00 0.02 0.02 67 1010.5
20260904230559 91 96 5.0 7.0 0.00 0.02 0.02 67 1010.5
20260904230459 91 100 5.0 7.0 0.00 0.02 0.02 67 1010.5
20260904230358 91 99 4.0 7.0 0.00 0.02 0.02 68 1010.5
20260904230300 91 118 4.0 7.0 0.00 0.02 0.02 68 1010.4
20260904230159 91 121 4.0 10.0 0.00 0.02 0.02 68 1010.4
20260904230059 91 79 2.0 10.0 0.00 0.02 0.02 68 1010.4
20260904225959 91 107 2.0 10.0 0.00 0.02 0.02 68 1010.4
20260904225859 91 92 3.0 10.0 0.00 0.02 0.02 68 1010.4
20260904225800 91 96 4.0 10.0 0.00 0.02 0.02 68 1010.4
20260904225659 91 97 3.0 10.0 0.00 0.02 0.02 68 1010.4
20260904225559 91 111 4.0 10.0 0.00 0.02 0.02 68 1010.5
20260904225458 91 114 5.0 10.0 0.00 0.02 0.02 68 1010.4
20260904225400 91 99 6.0 10.0 0.00 0.02 0.02 68 1010.4
20260904225300 91 97 6.0 10.0 0.00 0.02 0.02 67 1010.4
20260904225159 91 87 5.0 10.0 0.00 0.02 0.02 67 1010.4
20260904225059 91 102 6.0 10.0 0.00 0.02 0.02 67 1010.3
20260904224959 92 76 6.0 10.0 0.00 0.02 0.02 67 1010.4
20260904224859 92 87 5.0 10.0 0.00 0.02 0.02 68 1010.5
20260904224757 92 65 3.0 9.0 0.00 0.02 0.02 68 1010.5
20260904224658 92 120 2.0 9.0 0.00 0.02 0.02 67 1010.4
20260904224559 92 114 2.0 9.0 0.00 0.02 0.02 67 1010.5
20260904224459 92 114 2.0 9.0 0.00 0.02 0.02 67 1010.5
20260904224358 92 114 2.0 9.0 0.00 0.02 0.02 67 1010.4
20260904224257 92 113 2.0 9.0 0.00 0.02 0.02 67 1010.4
20260904224158 92 107 4.0 9.0 0.00 0.02 0.02 67 1010.5
20260904224058 91 103 5.0 9.0 0.00 0.02 0.02 67 1010.5
20260904223958 91 87 4.0 9.0 0.00 0.02 0.02 67 1010.4
20260904223859 91 134 3.0 7.0 0.00 0.02 0.02 68 1010.5
20260904223758 91 123 4.0 7.0 0.00 0.02 0.02 67 1010.5
20260904223658 91 117 5.0 7.0 0.00 0.02 0.02 67 1010.4
20260904223557 91 97 5.0 7.0 0.00 0.02 0.02 67 1010.4
20260904223459 91 92 5.0 7.0 0.00 0.02 0.02 67 1010.5
20260904223358 91 92 5.0 7.0 0.00 0.02 0.02 67 1010.5
20260904223258 91 92 5.0 7.0 0.00 0.02 0.02 67 1010.6
20260904223135 91 99 5.0 9.0 0.00 0.02 0.02 67 1010.5
20260904223035 91 100 4.0 9.0 0.00 0.02 0.02 67 1010.5
20260904222932 91 86 2.0 9.0 0.00 0.02 0.02 68 1010.5
20260904222831 91 97 3.0 9.0 0.00 0.02 0.02 68 1010.5
20260904222732 91 97 4.0 9.0 0.00 0.02 0.02 67 1010.5
20260904222632 91 94 5.0 9.0 0.00 0.02 0.02 67 1010.5
20260904222531 91 96 5.0 9.0 0.00 0.02 0.02 67 1010.5
20260904222433 91 103 4.0 9.0 0.00 0.02 0.02 67 1010.5
20260904222333 91 103 5.0 9.0 0.00 0.02 0.02 67 1010.5
20260904222231 91 96 6.0 9.0 0.00 0.02 0.02 67 1010.5
20260904222132 91 113 5.0 7.0 0.00 0.02 0.02 67 1010.5
20260904222021 92 82 5.0 7.0 0.00 0.02 0.02 67 1010.5
20260904221918 92 94 5.0 7.0 0.00 0.02 0.02 67 1010.5
20260904221812 92 96 3.0 7.0 0.00 0.02 0.02 67 1010.5
20260904221710 92 107 3.0 7.0 0.00 0.02 0.02 66 1010.5
20260904221606 92 107 4.0 7.0 0.00 0.02 0.02 66 1010.5
20260904221506 92 113 4.0 7.0 0.00 0.02 0.02 66 1010.5
20260904221404 92 97 3.0 9.0 0.00 0.02 0.02 66 1010.6
20260904221304 92 107 3.0 9.0 0.00 0.02 0.02 66 1010.6
20260904221203 92 114 4.0 9.0 0.00 0.02 0.02 66 1010.5
20260904221103 92 131 3.0 9.0 0.00 0.02 0.02 66 1010.6
20260904221003 92 131 3.0 9.0 0.00 0.02 0.02 66 1010.6
20260904220904 92 131 3.0 12.0 0.00 0.02 0.02 66 1010.7
20260904220803 92 131 3.0 12.0 0.00 0.02 0.02 66 1010.6
20260904220703 92 137 4.0 12.0 0.00 0.02 0.02 66 1010.7
20260904220603 92 92 4.0 12.0 0.00 0.02 0.02 66 1010.7
20260904220504 92 96 4.0 12.0 0.00 0.02 0.02 67 1010.7
20260904220404 92 104 4.0 12.0 0.00 0.02 0.02 67 1010.7
20260904220304 91 131 4.0 12.0 0.00 0.02 0.02 68 1010.8
20260904220204 91 96 4.0 12.0 0.00 0.02 0.02 68 1010.8
20260904220005 92 104 9.0 12.0 0.00 0.02 0.02 67 1010.8
20260904215859 92 107 9.0 9.0 0.00 0.02 0.02 67 1010.8
20260904215758 91 103 4.0 9.0 0.00 0.02 0.02 68 1010.8
20260904215658 91 103 4.0 9.0 0.00 0.02 0.02 68 1010.8
20260904215557 91 103 4.0 13.0 0.00 0.02 0.02 68 1010.8
20260904215456 91 103 5.0 14.0 0.00 0.02 0.02 68 1010.7
20260904215357 91 104 4.0 14.0 0.00 0.02 0.02 69 1010.8
20260904215257 91 76 4.0 14.0 0.00 0.02 0.02 68 1010.7
20260904215157 91 100 5.0 14.0 0.00 0.02 0.02 68 1010.7
20260904215058 92 97 4.0 14.0 0.00 0.02 0.02 67 1010.7
20260904214957 92 124 8.0 14.0 0.00 0.02 0.02 66 1010.8
20260904214858 92 124 8.0 14.0 0.00 0.02 0.02 66 1010.8
20260904214751 92 127 8.0 14.0 0.00 0.02 0.02 66 1010.8
20260904214649 92 94 8.0 14.0 0.00 0.02 0.02 66 1010.8
20260904214547 92 94 7.0 14.0 0.00 0.02 0.02 67 1010.8
20260904214446 92 103 5.0 13.0 0.00 0.02 0.02 67 1010.7
20260904214345 92 94 5.0 13.0 0.00 0.02 0.02 66 1010.7
20260904214244 93 89 5.0 13.0 0.00 0.02 0.02 67 1010.6
20260904214142 93 114 6.0 13.0 0.00 0.02 0.02 65 1010.8
20260904214037 93 109 7.0 13.0 0.00 0.02 0.02 65 1010.7
20260904213936 93 107 6.0 13.0 0.00 0.02 0.02 64 1010.6
20260904213835 93 89 4.0 10.0 0.00 0.02 0.02 66 1010.8
20260904213733 93 85 5.0 10.0 0.00 0.02 0.02 64 1010.8
20260904213630 93 110 4.0 9.0 0.00 0.02 0.02 64 1010.8
20260904213532 93 87 3.0 7.0 0.00 0.02 0.02 65 1010.7
20260904213431 93 96 3.0 7.0 0.00 0.02 0.02 64 1010.8
20260904213332 93 130 3.0 7.0 0.00 0.02 0.02 63 1010.8
20260904213229 93 96 4.0 7.0 0.00 0.02 0.02 63 1010.8
20260904213125 93 180 2.0 7.0 0.00 0.02 0.02 61 1010.8
20260904213013 94 97 3.0 7.0 0.00 0.02 0.02 62 1010.9
20260904212911 94 96 4.0 7.0 0.00 0.02 0.02 62 1010.8
20260904212804 94 97 4.0 7.0 0.00 0.02 0.02 61 1010.8
20260904212704 93 154 3.0 6.0 0.00 0.02 0.02 61 1010.8
20260904212604 93 189 2.0 6.0 0.00 0.02 0.02 60 1010.8
20260904212502 93 195 2.0 6.0 0.00 0.02 0.02 59 1010.8
20260904212404 93 196 3.0 6.0 0.00 0.02 0.02 59 1010.9
20260904212302 93 196 4.0 6.0 0.00 0.02 0.02 59 1010.8
20260904212201 93 124 4.0 5.0 0.00 0.02 0.02 59 1010.9
20260904212104 93 188 2.0 5.0 0.00 0.02 0.02 59 1010.9
20260904212003 93 188 2.0 5.0 0.00 0.02 0.02 59 1010.9
20260904211903 93 188 2.0 5.0 0.00 0.02 0.02 59 1010.9
20260904211803 93 188 2.0 5.0 0.00 0.02 0.02 59 1010.9
20260904211703 93 188 2.0 5.0 0.00 0.02 0.02 59 1010.9
20260904211604 93 188 1.0 5.0 0.00 0.02 0.02 58 1011.0
20260904211504 93 188 2.0 5.0 0.00 0.02 0.02 58 1010.9
20260904211403 93 188 4.0 5.0 0.00 0.02 0.02 58 1011.0
20260904211303 93 188 3.0 5.0 0.00 0.02 0.02 59 1011.1
20260904211202 93 185 3.0 4.0 0.00 0.02 0.02 58 1011.0
20260904211103 93 200 3.0 4.0 0.00 0.02 0.02 59 1011.0
20260904211003 93 220 2.0 3.0 0.00 0.02 0.02 59 1011.1
20260904210902 93 220 2.0 3.0 0.00 0.02 0.02 59 1011.0
20260904210804 92 223 0.0 2.0 0.00 0.02 0.02 59 1011.1
20260904210703 92 223 0.0 2.0 0.00 0.02 0.02 59 1011.0
20260904210603 92 223 0.0 3.0 0.00 0.02 0.02 59 1011.1
20260904210502 92 223 0.0 4.0 0.00 0.02 0.02 59 1011.1
20260904210403 92 223 0.0 5.0 0.00 0.02 0.02 62 1011.1
20260904210303 92 224 1.0 5.0 0.00 0.02 0.02 62 1011.1
20260904210202 92 224 1.0 5.0 0.00 0.02 0.02 62 1011.1
20260904210104 92 224 0.0 5.0 0.00 0.02 0.02 63 1011.2
20260904210002 92 224 0.0 5.0 0.00 0.02 0.02 63 1011.1
20260904205903 92 224 0.0 5.0 0.00 0.02 0.02 63 1011.1
20260904205802 92 224 1.0 5.0 0.00 0.02 0.02 62 1011.3
20260904205703 92 224 2.0 5.0 0.00 0.02 0.02 62 1011.3
20260904205602 92 224 3.0 6.0 0.00 0.02 0.02 61 1011.2
20260904205502 92 224 3.0 6.0 0.00 0.02 0.02 61 1011.3
20260904205403 92 224 2.0 6.0 0.00 0.02 0.02 62 1011.3
20260904205306 92 223 2.0 6.0 0.00 0.03 0.02 63 1011.3
20260904205203 92 223 3.0 6.0 0.00 0.03 0.02 63 1011.3
20260904205103 92 223 3.0 6.0 0.00 0.03 0.02 64 1011.3
20260904205002 92 235 2.0 6.0 0.00 0.03 0.02 65 1011.3
20260904204903 92 276 2.0 6.0 0.00 0.03 0.02 65 1011.4
20260904204804 92 276 3.0 6.0 0.00 0.03 0.02 65 1011.4
20260904204702 92 274 3.0 6.0 0.00 0.03 0.02 66 1011.4
20260904204604 92 233 2.0 6.0 0.00 0.03 0.02 66 1011.4
20260904204503 91 254 2.0 6.0 0.00 0.03 0.02 66 1011.4
20260904204403 91 231 4.0 6.0 0.00 0.03 0.02 66 1011.5
20260904204303 91 231 4.0 6.0 0.00 0.03 0.02 66 1011.5
20260904204203 91 231 4.0 6.0 0.00 0.03 0.02 66 1011.5
20260904204103 91 231 4.0 6.0 0.00 0.03 0.02 66 1011.5
20260904204004 91 251 3.0 6.0 0.00 0.03 0.02 68 1011.5
20260904203902 91 251 2.0 5.0 0.00 0.03 0.02 67 1011.5
20260904203802 91 251 3.0 5.0 0.00 0.03 0.02 67 1011.5
20260904203702 91 251 3.0 5.0 0.00 0.03 0.02 68 1011.5
20260904203556 90 247 3.0 5.0 0.00 0.03 0.02 68 1011.5
20260904203457 90 247 3.0 6.0 0.00 0.03 0.02 67 1011.5
20260904203356 90 240 3.0 7.0 0.00 0.03 0.02 67 1011.5
20260904203255 90 241 4.0 7.0 0.00 0.03 0.02 67 1011.5
20260904203155 90 241 2.0 7.0 0.00 0.03 0.02 67 1011.6
20260904203056 91 217 3.0 7.0 0.00 0.03 0.02 67 1011.6
20260904202955 91 217 3.0 7.0 0.00 0.03 0.02 67 1011.7
20260904202856 91 217 3.0 7.0 0.00 0.03 0.02 67 1011.7
20260904202733 91 217 3.0 7.0 0.00 0.03 0.02 67 1011.7
20260904202631 91 220 5.0 7.0 0.00 0.03 0.02 67 1011.8
20260904202531 91 244 4.0 7.0 0.00 0.03 0.02 68 1011.8
20260904202431 90 245 4.0 7.0 0.00 0.03 0.02 68 1011.9
20260904202332 90 241 4.0 7.0 0.00 0.03 0.02 67 1011.9
20260904202231 90 247 4.0 7.0 0.00 0.03 0.02 68 1011.9
20260904202132 90 241 3.0 6.0 0.00 0.03 0.02 67 1011.9
20260904202031 90 241 3.0 6.0 0.00 0.03 0.02 67 1011.9
20260904201932 90 243 3.0 7.0 0.00 0.03 0.02 67 1011.9
20260904201831 91 261 3.0 7.0 0.00 0.03 0.02 67 1011.9
20260904201733 91 254 3.0 7.0 0.00 0.03 0.02 66 1011.9
20260904201632 91 252 4.0 7.0 0.00 0.03 0.02 67 1011.9
20260904201532 91 259 4.0 7.0 0.00 0.03 0.02 67 1011.9
20260904201433 91 214 4.0 7.0 0.00 0.03 0.02 67 1011.9
20260904201332 91 220 5.0 7.0 0.00 0.03 0.02 67 1011.9
20260904201233 91 220 5.0 7.0 0.00 0.03 0.02 67 1011.9
20260904201132 91 220 5.0 7.0 0.00 0.03 0.02 67 1011.9
20260904201032 91 220 5.0 11.0 0.00 0.03 0.02 67 1012.0
20260904200931 91 224 4.0 11.0 0.00 0.03 0.02 67 1011.8
20260904200831 91 182 3.0 11.0 0.00 0.03 0.02 67 1011.9
20260904200732 91 176 3.0 11.0 0.00 0.03 0.02 67 1011.9
20260904200633 91 176 3.0 11.0 0.00 0.03 0.02 67 1011.9
20260904200533 91 176 3.0 11.0 0.00 0.03 0.02 67 1011.9
20260904200432 91 176 3.0 11.0 0.00 0.03 0.02 67 1012.0
20260904200308 91 204 4.0 11.0 0.00 0.03 0.02 68 1011.9
20260904200207 91 221 5.0 11.0 0.00 0.03 0.02 68 1011.9
20260904200104 91 182 4.0 9.0 0.00 0.03 0.02 69 1011.9
20260904200004 90 233 2.0 6.0 0.00 0.03 0.02 70 1011.9
20260904195902 90 234 2.0 6.0 0.00 0.03 0.02 69 1011.9
20260904195801 90 234 4.0 6.0 0.00 0.03 0.02 69 1011.9
20260904195703 90 235 4.0 6.0 0.00 0.03 0.02 70 1011.9
20260904195603 90 234 4.0 6.0 0.00 0.03 0.02 70 1012.0
20260904195502 90 234 6.0 6.0 0.00 0.03 0.02 69 1011.9
20260904195403 90 266 4.0 6.0 0.00 0.03 0.02 71 1012.0
20260904195306 90 266 4.0 6.0 0.00 0.03 0.02 71 1011.9
20260904195154 90 266 4.0 6.0 0.00 0.03 0.02 71 1012.0
20260904195038 90 275 3.0 6.0 0.00 0.03 0.02 71 1011.9
20260904194935 90 223 3.0 6.0 0.00 0.03 0.02 68 1012.0
20260904194831 90 221 4.0 6.0 0.00 0.03 0.02 68 1012.1
20260904194731 90 221 4.0 6.0 0.00 0.03 0.02 68 1012.0
20260904194632 90 220 4.0 5.0 0.00 0.03 0.02 70 1012.1
20260904194533 90 248 3.0 5.0 0.00 0.03 0.02 72 1012.0
20260904194432 90 248 3.0 5.0 0.00 0.03 0.02 72 1012.0
20260904194331 90 248 2.0 5.0 0.00 0.03 0.02 72 1012.0
20260904194231 89 203 2.0 5.0 0.00 0.03 0.02 71 1012.0
20260904194133 89 220 2.0 5.0 0.00 0.03 0.02 71 1012.0
20260904194016 89 220 2.0 5.0 0.00 0.03 0.02 72 1012.0
20260904193912 89 221 3.0 5.0 0.00 0.03 0.02 71 1012.1
20260904193810 89 221 3.0 5.0 0.00 0.03 0.02 73 1012.1
20260904193710 89 213 2.0 5.0 0.00 0.03 0.02 73 1012.2
20260904193609 88 221 2.0 5.0 0.00 0.03 0.02 74 1012.2
20260904193510 88 223 3.0 5.0 0.00 0.03 0.02 75 1012.2
20260904193407 88 250 4.0 6.0 0.00 0.03 0.02 75 1012.2
20260904193307 88 231 3.0 6.0 0.00 0.03 0.02 76 1012.2
20260904193204 88 230 2.0 6.0 0.00 0.03 0.02 76 1012.3
20260904193103 88 231 3.0 6.0 0.00 0.03 0.02 76 1012.3
20260904193004 88 241 3.0 6.0 0.00 0.03 0.02 78 1012.3
20260904192904 88 241 3.0 6.0 0.00 0.03 0.02 78 1012.3
20260904192803 88 241 3.0 6.0 0.00 0.03 0.02 78 1012.4
20260904192704 88 241 3.0 6.0 0.00 0.03 0.02 78 1012.3
20260904192603 88 238 4.0 6.0 0.00 0.03 0.02 77 1012.3
20260904192503 88 268 3.0 6.0 0.00 0.03 0.02 77 1012.4
20260904192403 88 261 3.0 6.0 0.00 0.03 0.02 78 1012.4
20260904192306 88 292 4.0 6.0 0.00 0.03 0.02 78 1012.4
20260904192202 88 278 4.0 6.0 0.00 0.03 0.02 78 1012.4
20260904192103 88 285 2.0 6.0 0.00 0.03 0.02 79 1012.4
20260904192003 87 230 0.0 6.0 0.00 0.03 0.02 79 1012.4
20260904191902 87 228 0.0 6.0 0.00 0.03 0.02 78 1012.3
20260904191803 87 228 1.0 6.0 0.00 0.03 0.02 78 1012.3
20260904191704 87 230 3.0 6.0 0.00 0.03 0.02 78 1012.3
20260904191602 87 230 3.0 6.0 0.00 0.03 0.02 78 1012.4
20260904191502 87 282 2.0 6.0 0.00 0.03 0.02 79 1012.4
20260904191404 87 282 2.0 6.0 0.00 0.03 0.02 79 1012.4
20260904191303 87 283 3.0 6.0 0.00 0.03 0.02 79 1012.4
20260904191203 87 282 3.0 6.0 0.00 0.03 0.02 80 1012.4
20260904191102 87 268 4.0 6.0 0.00 0.03 0.02 80 1012.4
20260904191003 87 258 5.0 6.0 0.00 0.03 0.02 80 1012.4
20260904190902 87 266 4.0 6.0 0.00 0.03 0.02 80 1012.5
20260904190802 87 272 4.0 6.0 0.00 0.03 0.02 81 1012.4
20260904190703 87 261 4.0 6.0 0.00 0.03 0.02 81 1012.5
20260904190603 87 278 4.0 6.0 0.00 0.03 0.02 80 1012.6
20260904190504 87 278 4.0 6.0 0.00 0.03 0.02 80 1012.6
20260904190403 87 278 4.0 6.0 0.00 0.03 0.02 80 1012.7
20260904190258 87 278 4.0 6.0 0.00 0.03 0.02 80 1012.7
20260904190156 87 278 4.0 6.0 0.00 0.03 0.02 81 1012.8
20260904190054 87 254 3.0 5.0 0.00 0.03 0.02 82 1012.8
20260904185953 86 255 3.0 4.0 0.00 0.03 0.02 82 1012.8
20260904185853 86 257 3.0 5.0 0.00 0.03 0.02 81 1012.8
20260904185753 86 258 2.0 5.0 0.00 0.03 0.02 82 1012.9
20260904185654 85 252 0.0 5.0 0.00 0.03 0.02 83 1012.8
20260904185552 85 252 0.0 5.0 0.00 0.03 0.02 83 1012.9
20260904185452 85 252 1.0 5.0 0.00 0.03 0.02 84 1012.9
20260904185352 85 252 2.0 5.0 0.00 0.03 0.02 85 1012.9
20260904185253 84 252 1.0 5.0 0.00 0.03 0.02 85 1012.9
20260904185152 84 252 2.0 5.0 0.00 0.03 0.02 84 1013.0
20260904185053 84 252 3.0 5.0 0.00 0.03 0.02 84 1013.0
20260904184955 84 252 4.0 5.0 0.00 0.03 0.02 84 1013.0
20260904184852 84 252 3.0 4.0 0.00 0.03 0.02 85 1013.1
20260904184753 84 251 2.0 3.0 0.00 0.03 0.02 85 1013.1
20260904184652 84 251 2.0 3.0 0.00 0.03 0.02 85 1013.2
20260904184553 84 244 2.0 6.0 0.00 0.03 0.02 85 1013.2
20260904184453 83 244 2.0 6.0 0.00 0.03 0.02 85 1013.2
20260904184353 83 0 1.0 6.0 0.00 0.03 0.02 86 1013.2
20260904184253 83 0 1.0 6.0 0.00 0.03 0.02 85 1013.3
20260904184153 83 0 2.0 6.0 0.00 0.03 0.02 85 1013.2
20260904184053 83 0 2.0 6.0 0.00 0.04 0.02 86 1013.2
20260904183954 82 0 4.0 6.0 0.00 0.04 0.02 86 1013.1
20260904183853 82 0 4.0 6.0 0.00 0.04 0.02 86 1013.1
20260904183754 82 0 4.0 6.0 0.00 0.05 0.02 86 1013.1
20260904183654 82 0 4.0 7.0 0.00 0.05 0.02 86 1013.1
20260904183554 82 0 3.0 10.0 0.00 0.05 0.02 86 1013.2
20260904183453 82 261 3.0 10.0 0.00 0.05 0.02 87 1013.1
20260904183354 82 251 3.0 10.0 0.00 0.05 0.02 86 1013.2
20260904183254 82 233 4.0 10.0 0.00 0.05 0.02 86 1013.2
20260904183152 82 244 4.0 10.0 0.00 0.06 0.02 86 1013.3
20260904183054 82 248 3.0 10.0 0.00 0.06 0.02 87 1013.3
20260904182954 82 212 3.0 10.0 0.00 0.06 0.02 87 1013.4
20260904182852 81 250 6.0 10.0 0.00 0.06 0.02 86 1013.4
20260904182754 81 261 6.0 10.0 0.00 0.06 0.02 86 1013.5
20260904182652 81 254 7.0 10.0 0.00 0.06 0.02 85 1013.5
20260904182552 81 268 6.0 10.0 0.00 0.06 0.02 85 1013.5
20260904182451 82 261 6.0 10.0 0.00 0.06 0.02 86 1013.5
20260904182352 82 269 6.0 7.0 0.00 0.06 0.02 86 1013.6
20260904182252 82 313 4.0 7.0 0.00 0.06 0.02 86 1013.5
20260904182153 82 269 4.0 7.0 0.00 0.06 0.02 86 1013.5
20260904182052 82 282 3.0 9.0 0.00 0.06 0.02 86 1013.5
20260904181952 82 283 4.0 9.0 0.00 0.06 0.02 86 1013.6
20260904181853 82 252 5.0 9.0 0.00 0.06 0.02 86 1013.6
20260904181751 82 271 5.0 9.0 0.00 0.06 0.02 86 1013.6
20260904181652 82 274 4.0 9.0 0.00 0.07 0.02 86 1013.6
20260904181552 81 305 4.0 9.0 0.00 0.07 0.02 86 1013.6
20260904181452 81 305 4.0 9.0 0.00 0.07 0.02 86 1013.6
20260904181353 81 305 4.0 9.0 0.00 0.08 0.02 86 1013.6
20260904181252 81 305 4.0 9.0 0.00 0.08 0.02 86 1013.6
20260904181151 81 293 6.0 9.0 0.00 0.08 0.02 86 1013.6
20260904181052 81 303 5.0 7.0 0.00 0.08 0.02 86 1013.6
20260904180951 81 271 5.0 7.0 0.00 0.08 0.02 86 1013.6
20260904180851 81 261 4.0 7.0 0.00 0.08 0.02 86 1013.7
20260904180752 81 251 3.0 6.0 0.00 0.08 0.02 86 1013.6
20260904180652 81 251 3.0 6.0 0.00 0.08 0.02 86 1013.5
20260904180552 81 274 4.0 7.0 0.00 0.08 0.02 86 1013.6
20260904180451 81 243 3.0 7.0 0.00 0.08 0.02 86 1013.6
20260904180351 81 238 2.0 7.0 0.00 0.08 0.02 86 1013.6
20260904180251 81 213 3.0 7.0 0.00 0.08 0.02 85 1013.6
20260904180153 81 238 4.0 7.0 0.00 0.08 0.02 85 1013.7
20260904180051 81 224 4.0 7.0 0.00 0.08 0.02 85 1013.7
20260904175952 81 266 3.0 7.0 0.00 0.08 0.02 85 1013.7
20260904175851 81 206 3.0 7.0 0.00 0.08 0.02 85 1013.8
20260904175753 81 204 3.0 7.0 0.00 0.08 0.02 85 1013.9
20260904175651 81 204 4.0 7.0 0.00 0.08 0.02 84 1014.0
20260904175553 81 224 5.0 6.0 0.00 0.08 0.02 84 1014.0
20260904175451 0 231 6.0 6.0 0.00 0.08 0.02 1014.1
20260904175353 0 0.0 0.0 0.00 0.08 0.02 1014.1
20260904175252 0 0.0 0.0 0.00 0.08 0.02 1014.1
20260904175150 0 0.0 0.0 0.00 0.08 0.02 1014.1
20260904175051 0 0.0 0.0 0.00 0.08 0.02 1014.1
20260904174950 0 0.0 0.0 0.00 0.08 0.02 1014.2
20260904174851 0 0.0 0.0 0.00 0.08 0.02 1014.1
20260904174750 0 0.0 0.0 0.00 0.08 0.02 1014.2
20260904174649 0 0.0 0.0 0.00 0.08 0.02 1014.1
20260904174548 82 196 3.0 4.0 0.00 0.08 0.02 83 1014.0
20260904174448 82 196 3.0 5.0 0.00 0.08 0.02 83 1014.0
20260904174348 82 196 3.0 5.0 0.00 0.08 0.02 83 1013.9
20260904174248 82 196 3.0 6.0 0.00 0.08 0.02 83 1013.9
20260904174150 82 196 3.0 9.0 0.00 0.08 0.02 83 1013.8
20260904174046 82 196 3.0 9.0 0.00 0.08 0.02 83 1013.8
20260904173946 82 196 3.0 9.0 0.00 0.08 0.02 83 1013.7
20260904173846 82 196 3.0 9.0 0.00 0.08 0.02 83 1013.7
20260904173746 82 196 3.0 9.0 0.00 0.08 0.02 83 1013.7
20260904173646 82 196 3.0 9.0 0.00 0.08 0.02 83 1013.7
20260904173545 82 195 3.0 9.0 0.00 0.08 0.02 83 1013.6
20260904173446 82 196 4.0 9.0 0.00 0.08 0.02 82 1013.7
20260904173347 82 255 5.0 9.0 0.00 0.08 0.02 82 1013.7
20260904173247 83 251 6.0 9.0 0.00 0.08 0.02 81 1013.7
20260904173146 83 234 4.0 9.0 0.00 0.08 0.02 81 1013.7
20260904173045 83 210 3.0 9.0 0.00 0.08 0.02 81 1013.7
20260904172945 83 214 3.0 9.0 0.00 0.08 0.02 80 1013.7
20260904172845 83 214 2.0 9.0 0.00 0.08 0.02 79 1013.7
20260904172745 84 214 3.0 10.0 0.00 0.08 0.02 79 1013.7
20260904172647 84 214 4.0 10.0 0.00 0.08 0.02 79 1013.8
20260904172545 84 216 5.0 11.0 0.00 0.08 0.02 78 1013.8
20260904172446 84 219 5.0 11.0 0.00 0.08 0.02 78 1013.9
20260904172346 84 238 5.0 11.0 0.00 0.08 0.02 77 1013.9
20260904172246 84 238 4.0 11.0 0.00 0.08 0.02 77 1014.0
20260904172145 84 228 5.0 13.0 0.00 0.08 0.02 77 1014.0
20260904172045 84 228 5.0 13.0 0.00 0.08 0.02 77 1013.9
20260904171945 84 237 6.0 13.0 0.00 0.08 0.02 77 1013.9
20260904171845 84 0 7.0 13.0 0.00 0.08 0.02 78 1013.9
20260904171744 84 0 7.0 13.0 0.00 0.08 0.02 78 1013.9
20260904171645 84 0 7.0 13.0 0.00 0.08 0.02 78 1014.0
20260904171546 84 307 6.0 13.0 0.00 0.08 0.02 79 1014.0
20260904171445 84 271 6.0 13.0 0.00 0.08 0.02 78 1014.1
20260904171345 84 283 8.0 13.0 0.00 0.08 0.02 78 1014.1
20260904171246 84 159 7.0 13.0 0.00 0.08 0.02 78 1014.1
20260904171145 85 257 7.0 12.0 0.00 0.08 0.02 78 1014.0
20260904171044 85 258 6.0 12.0 0.00 0.08 0.02 78 1014.1
20260904170945 85 266 5.0 12.0 0.00 0.08 0.02 78 1014.1
20260904170844 85 262 5.0 12.0 0.00 0.08 0.02 77 1014.1
20260904170745 85 289 4.0 12.0 0.00 0.08 0.02 78 1014.1
20260904170646 85 269 7.0 12.0 0.00 0.08 0.02 78 1014.0
20260904170545 86 231 7.0 12.0 0.00 0.08 0.02 78 1014.0
20260904170444 86 278 6.0 9.0 0.00 0.08 0.02 78 1014.1
20260904170346 87 252 4.0 9.0 0.00 0.08 0.02 81 1014.0
20260904170245 87 196 2.0 6.0 0.00 0.08 0.02 81 1014.0
20260904170146 87 116 2.0 5.0 0.00 0.08 0.02 81 1013.9
20260904170046 87 116 3.0 5.0 0.00 0.08 0.02 81 1013.9
20260904165945 87 114 2.0 5.0 0.00 0.08 0.02 82 1013.8
20260904165846 87 109 2.0 5.0 0.00 0.08 0.02 82 1013.9
20260904165744 87 107 2.0 5.0 0.00 0.08 0.02 82 1013.9
20260904165645 87 106 2.0 5.0 0.00 0.08 0.02 82 1013.8
20260904165546 87 106 2.0 7.0 0.00 0.08 0.02 82 1013.9
20260904165446 87 106 2.0 7.0 0.00 0.08 0.02 83 1013.8
20260904165344 87 109 2.0 7.0 0.00 0.08 0.02 82 1013.8
20260904165245 86 127 3.0 7.0 0.00 0.08 0.02 82 1013.8
20260904165145 86 127 3.0 7.0 0.00 0.08 0.02 82 1013.8
20260904165045 86 127 3.0 7.0 0.00 0.08 0.02 82 1013.8
20260904164945 86 127 3.0 7.0 0.00 0.08 0.02 82 1013.8
20260904164845 86 127 3.0 7.0 0.00 0.08 0.02 82 1013.8
20260904164745 86 127 3.0 7.0 0.00 0.08 0.02 82 1013.7
20260904164645 87 125 4.0 7.0 0.00 0.08 0.02 82 1013.7
20260904164544 87 135 2.0 2.0 0.00 0.08 0.02 82 1013.7
20260904164445 86 90 3.0 5.0 0.00 0.08 0.02 84 1013.7
20260904164345 86 90 3.0 5.0 0.00 0.08 0.02 84 1013.7
20260904164245 86 90 3.0 5.0 0.00 0.08 0.02 84 1013.7
20260904164145 86 90 3.0 5.0 0.00 0.08 0.02 84 1013.6
20260904164043 86 90 3.0 7.0 0.00 0.08 0.02 84 1013.6
20260904163943 86 90 3.0 7.0 0.00 0.08 0.02 84 1013.6
20260904163843 86 90 3.0 7.0 0.00 0.08 0.02 84 1013.6
20260904163743 86 90 3.0 7.0 0.00 0.08 0.02 84 1013.6
20260904163644 86 90 3.0 7.0 0.00 0.08 0.02 84 1013.6
20260904163543 86 90 3.0 7.0 0.00 0.08 0.02 84 1013.6
20260904163444 87 131 3.0 7.0 0.00 0.08 0.02 84 1013.6
20260904163343 86 131 3.0 7.0 0.00 0.08 0.02 84 1013.6
20260904163243 86 131 4.0 7.0 0.00 0.08 0.02 84 1013.6
20260904163141 86 141 4.0 7.0 0.00 0.08 0.02 84 1013.7
20260904163043 86 133 2.0 7.0 0.00 0.08 0.02 84 1013.6
20260904162943 86 133 2.0 7.0 0.00 0.08 0.02 84 1013.7
20260904162845 86 133 2.0 7.0 0.00 0.08 0.02 86 1013.7
20260904162743 86 0 2.0 7.0 0.00 0.08 0.02 86 1013.7
20260904162642 86 0 2.0 7.0 0.00 0.08 0.02 86 1013.7
20260904162543 86 0 2.0 7.0 0.00 0.08 0.02 86 1013.7
20260904162443 86 0 2.0 7.0 0.00 0.08 0.02 86 1013.7
20260904162343 86 0 3.0 7.0 0.00 0.08 0.02 86 1013.6
20260904162242 85 0 4.0 7.0 0.00 0.08 0.02 86 1013.7
20260904162142 85 0 4.0 7.0 0.00 0.08 0.02 86 1013.6
20260904162041 85 0 4.0 6.0 0.00 0.08 0.02 86 1013.6
20260904161941 85 0 4.0 6.0 0.00 0.08 0.02 86 1013.6
20260904161841 85 0 3.0 6.0 0.00 0.08 0.02 87 1013.6
20260904161742 85 0 3.0 7.0 0.00 0.08 0.02 87 1013.5
20260904161642 85 0 4.0 7.0 0.00 0.08 0.02 87 1013.6
20260904161543 85 0 3.0 7.0 0.00 0.08 0.02 87 1013.6
20260904161443 85 106 4.0 10.0 0.00 0.08 0.02 87 1013.6
20260904161341 85 104 4.0 10.0 0.00 0.08 0.02 87 1013.6
20260904161242 85 87 4.0 10.0 0.00 0.08 0.02 87 1013.5
20260904161141 85 121 2.0 10.0 0.00 0.08 0.02 87 1013.5
20260904161042 85 92 3.0 10.0 0.00 0.08 0.02 87 1013.5
20260904160942 85 92 4.0 10.0 0.00 0.08 0.02 87 1013.5
20260904160843 85 92 5.0 10.0 0.00 0.08 0.02 87 1013.5
20260904160741 85 92 5.0 10.0 0.00 0.08 0.02 87 1013.4
20260904160642 85 100 5.0 10.0 0.00 0.08 0.02 87 1013.4
20260904160541 85 102 6.0 10.0 0.00 0.08 0.02 87 1013.4
20260904160442 85 90 6.0 10.0 0.00 0.08 0.02 87 1013.4
20260904160341 85 97 6.0 10.0 0.00 0.08 0.02 87 1013.5
20260904160241 85 99 6.0 10.0 0.00 0.08 0.02 87 1013.4
20260904160143 85 97 5.0 10.0 0.00 0.08 0.02 87 1013.4
20260904160042 85 92 6.0 10.0 0.00 0.08 0.02 87 1013.4
20260904155941 85 96 6.0 10.0 0.00 0.08 0.02 87 1013.4
20260904155843 85 0 6.0 10.0 0.00 0.08 0.02 87 1013.4
20260904155742 85 0 5.0 10.0 0.00 0.08 0.02 87 1013.5
20260904155641 85 0 5.0 10.0 0.00 0.08 0.02 87 1013.4
20260904155540 85 0 4.0 10.0 0.00 0.08 0.02 87 1013.5
20260904155442 85 0 6.0 10.0 0.00 0.08 0.02 87 1013.5
20260904155342 85 0 6.0 10.0 0.00 0.08 0.02 87 1013.6
20260904155241 85 100 5.0 7.0 0.00 0.08 0.02 87 1013.6
20260904155142 85 96 5.0 7.0 0.00 0.08 0.02 87 1013.6
20260904155042 85 99 4.0 7.0 0.00 0.08 0.02 87 1013.6
20260904154942 85 99 4.0 7.0 0.00 0.08 0.02 87 1013.7
20260904154843 85 99 4.0 7.0 0.00 0.08 0.02 87 1013.7
20260904154742 85 99 4.0 7.0 0.00 0.08 0.02 87 1013.7
20260904154643 85 99 4.0 9.0 0.00 0.08 0.02 87 1013.7
20260904154540 85 59 4.0 9.0 0.00 0.08 0.02 87 1013.7
20260904154442 85 100 4.0 9.0 0.00 0.08 0.02 87 1013.7
20260904154341 85 102 4.0 9.0 0.00 0.08 0.02 87 1013.6
20260904154242 85 102 5.0 9.0 0.00 0.08 0.02 87 1013.6
20260904154140 85 99 4.0 9.0 0.00 0.08 0.02 87 1013.6
20260904154041 85 99 3.0 9.0 0.00 0.08 0.02 87 1013.6
20260904153940 85 100 4.0 9.0 0.00 0.08 0.02 87 1013.5
20260904153842 85 103 5.0 9.0 0.00 0.08 0.02 86 1013.5
20260904153741 85 94 5.0 9.0 0.00 0.08 0.02 86 1013.4
20260904153642 85 116 5.0 9.0 0.00 0.08 0.02 87 1013.4
20260904153540 85 97 5.0 9.0 0.00 0.08 0.02 87 1013.4
20260904153440 85 99 5.0 7.0 0.00 0.08 0.02 87 1013.2
20260904153342 85 99 5.0 7.0 0.00 0.08 0.02 87 1013.3
20260904153242 85 100 5.0 7.0 0.00 0.08 0.02 87 1013.2
20260904153140 85 100 4.0 6.0 0.00 0.08 0.02 87 1013.2
20260904153042 85 102 3.0 6.0 0.00 0.08 0.02 87 1013.1
20260904152941 85 102 3.0 6.0 0.00 0.08 0.02 87 1013.2
20260904152840 85 102 4.0 6.0 0.00 0.08 0.02 87 1013.2
20260904152740 85 102 4.0 6.0 0.00 0.08 0.02 87 1013.2
20260904152640 85 102 3.0 6.0 0.00 0.08 0.02 87 1013.2
20260904152542 85 102 3.0 6.0 0.00 0.08 0.02 87 1013.2
20260904152440 85 102 3.0 6.0 0.00 0.08 0.02 87 1013.1
20260904152340 85 102 4.0 6.0 0.00 0.08 0.02 88 1013.1
20260904152240 85 99 4.0 6.0 0.00 0.08 0.02 88 1013.1
20260904152140 85 97 3.0 6.0 0.00 0.08 0.02 88 1013.0
20260904152041 85 102 4.0 6.0 0.00 0.08 0.02 88 1013.1
20260904151940 85 102 4.0 6.0 0.00 0.08 0.02 88 1013.1
20260904151841 85 58 4.0 6.0 0.00 0.08 0.02 88 1013.1
20260904151740 85 61 4.0 6.0 0.00 0.08 0.02 88 1013.1
20260904151640 85 68 3.0 6.0 0.00 0.08 0.02 88 1013.2
20260904151540 85 69 3.0 6.0 0.00 0.08 0.02 88 1013.2
20260904151442 84 71 3.0 6.0 0.00 0.08 0.02 88 1013.2
20260904151341 84 71 4.0 6.0 0.00 0.08 0.02 88 1013.1
20260904151240 84 78 4.0 6.0 0.00 0.08 0.02 88 1013.1
20260904151140 84 72 4.0 6.0 0.00 0.08 0.02 88 1013.2
20260904151040 84 66 4.0 6.0 0.00 0.08 0.02 88 1013.1
20260904150940 84 62 5.0 6.0 0.00 0.08 0.02 88 1013.1
20260904150840 84 63 5.0 6.0 0.00 0.08 0.02 87 1013.2
20260904150741 85 114 4.0 6.0 0.00 0.08 0.02 87 1013.1
20260904150640 85 0 2.0 5.0 0.00 0.08 0.02 88 1013.1
20260904150541 85 0 0.0 0.0 0.00 0.08 0.02 87 1013.1
20260904150440 85 0 0.0 0.0 0.00 0.08 0.02 87 1013.1
20260904150340 85 0 0.0 0.0 0.00 0.08 0.02 87 1013.1
20260904150242 85 0 0.0 0.0 0.00 0.08 0.02 87 1013.1
20260904150142 85 178 0.0 0.0 0.00 0.08 0.02 87 1013.2
20260904150039 85 178 0.0 0.0 0.00 0.08 0.02 87 1013.2
20260904145939 85 182 0.0 0.0 0.00 0.08 0.02 87 1013.2
20260904145840 85 185 0.0 0.0 0.00 0.08 0.02 87 1013.1
20260904145740 85 186 0.0 0.0 0.00 0.08 0.02 87 1013.0
20260904145640 85 186 0.0 0.0 0.00 0.08 0.02 87 1013.1
20260904145541 85 186 0.0 0.0 0.00 0.08 0.02 86 1013.1
20260904145440 85 186 0.0 0.0 0.00 0.08 0.02 87 1013.0
20260904145340 85 192 0.0 0.0 0.00 0.08 0.02 87 1013.0
20260904145241 85 193 0.0 0.0 0.00 0.08 0.02 87 1013.0
20260904145141 85 193 0.0 0.0 0.00 0.08 0.02 86 1013.0
20260904145040 85 193 0.0 0.0 0.00 0.08 0.02 86 1013.0
20260904144940 85 193 0.0 0.0 0.00 0.08 0.02 86 1013.0
20260904144840 85 193 0.0 0.0 0.00 0.08 0.02 86 1013.0
20260904144739 85 193 0.0 0.0 0.00 0.08 0.02 86 1013.1
20260904144641 85 196 0.0 0.0 0.00 0.08 0.02 86 1013.0
20260904144541 85 196 0.0 0.0 0.00 0.08 0.02 86 1013.0
20260904144441 85 196 0.0 0.0 0.00 0.08 0.02 86 1013.0
20260904144339 85 196 0.0 0.0 0.00 0.08 0.02 86 1013.0
20260904144240 85 197 0.0 0.0 0.00 0.08 0.02 86 1013.0
20260904144139 85 199 0.0 0.0 0.00 0.08 0.02 86 1013.0
20260904144040 85 200 0.0 0.0 0.00 0.08 0.02 86 1013.0
20260904143939 85 200 0.0 0.0 0.00 0.08 0.02 87 1012.9
20260904143840 85 200 0.0 0.0 0.00 0.08 0.02 87 1012.9
20260904143739 85 200 0.0 0.0 0.00 0.08 0.02 87 1013.0
20260904143639 85 199 0.0 0.0 0.00 0.08 0.02 87 1013.0
20260904143539 85 196 0.0 0.0 0.00 0.08 0.02 87 1013.0
20260904143439 85 196 0.0 0.0 0.00 0.08 0.02 87 1013.0
20260904143339 85 196 0.0 0.0 0.00 0.08 0.02 87 1013.0
20260904143239 85 196 0.0 0.0 0.00 0.08 0.02 87 1013.0
20260904143140 0 0.0 0.0 0.00 0.08 0.02 1013.0
20260904143040 0 0.0 0.0 0.00 0.08 0.02 1013.0
20260904142940 0 0.0 0.0 0.00 0.08 0.02 1013.0
20260904142839 0 0.0 0.0 0.00 0.08 0.02 1013.0
20260904142738 85 202 0.0 0.0 0.00 0.08 0.02 87 1013.0
20260904142640 85 202 0.0 0.0 0.00 0.08 0.02 87 1012.9
20260904142538 85 202 0.0 0.0 0.00 0.08 0.02 87 1013.0
20260904142439 85 202 0.0 0.0 0.00 0.08 0.02 87 1013.0
20260904142337 85 202 0.0 0.0 0.00 0.08 0.02 87 1012.9
20260904142232 85 202 0.0 0.0 0.00 0.08 0.02 87 1012.9
20260904142132 85 202 0.0 0.0 0.00 0.08 0.02 87 1012.9
20260904142032 85 202 0.0 0.0 0.00 0.08 0.02 87 1013.0
20260904141932 85 202 0.0 0.0 0.00 0.08 0.02 87 1013.0
20260904141832 85 202 0.0 0.0 0.00 0.08 0.02 87 1012.9
20260904141711 85 200 0.0 0.0 0.00 0.08 0.02 87 1012.9
20260904141607 85 200 0.0 0.0 0.00 0.08 0.02 87 1012.9
20260904141507 85 200 0.0 0.0 0.00 0.08 0.02 87 1012.8
20260904141404 85 200 0.0 0.0 0.00 0.08 0.02 88 1012.9
20260904141304 85 200 0.0 0.0 0.00 0.08 0.02 88 1012.9
20260904141204 85 200 0.0 0.0 0.00 0.08 0.02 89 1012.9
20260904141104 85 200 0.0 0.0 0.00 0.08 0.02 88 1012.8
20260904141004 85 200 0.0 0.0 0.00 0.08 0.02 89 1012.8
20260904140903 85 200 0.0 0.0 0.00 0.08 0.02 89 1012.9
20260904140803 85 200 0.0 0.0 0.00 0.08 0.02 89 1012.9
20260904140703 85 200 0.0 0.0 0.00 0.08 0.02 89 1012.9
20260904140551 85 199 0.0 0.0 0.00 0.08 0.02 89 1012.9
20260904140450 85 200 0.0 0.0 0.00 0.08 0.02 89 1012.9
20260904140341 84 202 0.0 0.0 0.00 0.08 0.02 89 1012.9
20260904140241 84 202 0.0 0.0 0.00 0.08 0.02 89 1012.9
20260904140137 84 202 0.0 0.0 0.00 0.08 0.02 90 1012.8
20260904140037 84 203 0.0 0.0 0.00 0.08 0.02 90 1012.9
20260904135937 84 203 0.0 0.0 0.00 0.08 0.02 90 1012.9
20260904135835 84 202 0.0 0.0 0.00 0.08 0.02 90 1012.8
20260904135736 84 202 0.0 0.0 0.00 0.08 0.02 91 1012.8
20260904135634 84 203 0.0 0.0 0.00 0.08 0.02 91 1012.9
20260904135535 84 203 0.0 0.0 0.00 0.08 0.02 91 1012.9
20260904135434 84 203 0.0 0.0 0.00 0.08 0.02 91 1012.8
20260904135335 84 203 0.0 0.0 0.00 0.08 0.02 91 1012.9
20260904135234 84 203 0.0 0.0 0.00 0.08 0.02 91 1012.8
20260904135135 84 202 0.0 0.0 0.00 0.08 0.02 91 1012.9
20260904135035 84 200 0.0 0.0 0.00 0.08 0.02 91 1012.8
20260904134934 83 199 0.0 0.0 0.00 0.08 0.02 91 1012.8
20260904134834 83 200 0.0 0.0 0.00 0.08 0.02 91 1012.8
20260904134735 83 210 0.0 0.0 0.00 0.08 0.02 92 1012.8
20260904134634 83 212 0.0 0.0 0.00 0.08 0.02 92 1012.8
20260904134534 83 204 0.0 0.0 0.00 0.08 0.02 91 1012.8
20260904134434 83 202 0.0 0.0 0.00 0.08 0.02 92 1012.8
20260904134334 82 196 0.0 0.0 0.00 0.08 0.02 92 1012.8
20260904134234 82 196 0.0 0.0 0.00 0.08 0.02 92 1012.8
20260904134134 82 196 0.0 0.0 0.00 0.08 0.02 92 1012.8
20260904134036 82 196 0.0 0.0 0.00 0.08 0.02 92 1012.7
20260904133934 82 196 0.0 0.0 0.00 0.08 0.02 93 1012.7
20260904133834 82 233 0.0 0.0 0.00 0.08 0.02 93 1012.8
20260904133734 82 196 0.0 0.0 0.00 0.08 0.02 93 1012.8
20260904133634 82 196 0.0 0.0 0.00 0.08 0.02 93 1012.7
20260904133534 82 196 0.0 0.0 0.00 0.08 0.02 93 1012.7
20260904133435 82 196 0.0 0.0 0.00 0.08 0.02 93 1012.8
20260904133334 82 196 0.0 0.0 0.00 0.08 0.02 93 1012.7
20260904133234 81 110 0.0 0.0 0.00 0.08 0.02 93 1012.7
20260904133134 81 196 0.0 0.0 0.00 0.08 0.02 93 1012.7
20260904133034 0 0.0 0.0 0.00 0.08 0.02 1012.7
20260904132934 0 0.0 0.0 0.00 0.08 0.02 1012.7
20260904132834 0 0.0 0.0 0.00 0.08 0.02 1012.7
20260904132732 0 0.0 0.0 0.00 0.08 0.02 1012.8
20260904132632 0 0.0 0.0 0.00 0.08 0.02 1012.7
20260904132532 0 0.0 0.0 0.00 0.08 0.02 1012.7
20260904132432 0 0.0 0.0 0.00 0.08 0.02 1012.6
20260904132332 0 0.0 0.0 0.00 0.08 0.02 1012.6
20260904132231 0 0.0 0.0 0.00 0.08 0.02 1012.6
20260904132131 0 0 0.0 0.0 0.00 0.08 0.02 1012.7
20260904132031 80 0 0.0 0.0 0.00 0.08 0.02 93 1012.7
20260904131932 80 0 0.0 0.0 0.00 0.08 0.02 93 1012.7
20260904131832 80 0 0.0 0.0 0.00 0.08 0.02 93 1012.7
20260904131731 80 0 0.0 0.0 0.00 0.08 0.02 93 1012.6
20260904131631 80 0 0.0 0.0 0.00 0.08 0.02 93 1012.7
20260904131531 80 0 0.0 0.0 0.00 0.08 0.02 93 1012.7
20260904131431 80 0 0.0 0.0 0.00 0.08 0.02 93 1012.7
20260904131331 80 0 0.0 0.0 0.00 0.08 0.02 93 1012.7
20260904131232 80 0 0.0 0.0 0.00 0.08 0.02 93 1012.7
20260904131133 80 0 0.0 0.0 0.00 0.08 0.02 93 1012.7
20260904131031 80 0 0.0 0.0 0.00 0.08 0.02 93 1012.7
20260904130932 80 0 0.0 0.0 0.00 0.08 0.02 93 1012.7
20260904130831 80 0 0.0 0.0 0.00 0.08 0.02 93 1012.7
20260904130731 80 0 0.0 0.0 0.00 0.08 0.02 93 1012.7
20260904130631 80 0 0.0 0.0 0.00 0.08 0.02 93 1012.7
20260904130531 80 0 0.0 0.0 0.00 0.08 0.02 93 1012.7
20260904130432 80 0 0.0 0.0 0.00 0.08 0.02 93 1012.6
20260904130331 80 0 0.0 0.0 0.00 0.08 0.02 93 1012.6
20260904130232 80 0 0.0 0.0 0.00 0.08 0.02 93 1012.6
20260904130132 80 0 0.0 0.0 0.00 0.08 0.02 93 1012.6
20260904130031 80 0 0.0 0.0 0.00 0.08 0.02 93 1012.6
20260904125932 80 0 0.0 0.0 0.00 0.08 0.02 93 1012.7
20260904125831 80 0 0.0 0.0 0.00 0.08 0.02 93 1012.6
20260904125732 80 0 0.0 0.0 0.00 0.08 0.02 93 1012.6
20260904125633 80 0 0.0 0.0 0.00 0.08 0.02 93 1012.6
20260904125531 80 0 0.0 0.0 0.00 0.08 0.02 93 1012.6
20260904125433 80 0 0.0 2.0 0.00 0.08 0.02 93 1012.6
20260904125332 80 0 0.0 2.0 0.00 0.08 0.02 93 1012.6
20260904125231 80 0 0.0 2.0 0.00 0.08 0.02 93 1012.6
20260904125131 80 0 0.0 2.0 0.00 0.08 0.02 93 1012.6
20260904125027 80 0 0.0 2.0 0.00 0.08 0.02 93 1012.5
20260904124928 80 0 0.0 2.0 0.00 0.08 0.02 93 1012.5
20260904124828 81 0 0.0 2.0 0.00 0.08 0.02 93 1012.5
20260904124728 81 0 0.0 2.0 0.00 0.08 0.02 93 1012.4
20260904124627 81 0 0.0 2.0 0.00 0.08 0.02 93 1012.4
20260904124527 81 0 0.0 2.0 0.00 0.08 0.02 93 1012.4
20260904124429 81 0 0.0 0.0 0.00 0.08 0.02 93 1012.4
20260904124326 80 0 0.0 0.0 0.00 0.08 0.02 93 1012.3
20260904124221 80 0 0.0 0.0 0.00 0.08 0.02 93 1012.3
20260904124122 80 0 0.0 0.0 0.00 0.08 0.02 93 1012.3
20260904124020 80 0 0.0 0.0 0.00 0.08 0.02 93 1012.3
20260904123918 80 0 0.0 0.0 0.00 0.08 0.02 93 1012.3
20260904123814 80 0 0.0 0.0 0.00 0.08 0.02 93 1012.2
20260904123706 80 0 0.0 0.0 0.00 0.08 0.02 93 1012.3
20260904123605 80 0 0.0 0.0 0.00 0.08 0.02 93 1012.2
20260904123504 80 0 0.0 0.0 0.00 0.08 0.02 93 1012.2
20260904123404 80 0 0.0 0.0 0.00 0.08 0.02 93 1012.2
20260904123302 80 0 0.0 0.0 0.00 0.08 0.02 93 1012.2
20260904123203 80 0 0.0 0.0 0.00 0.08 0.02 93 1012.2
20260904123103 80 0 0.0 0.0 0.00 0.08 0.02 93 1012.1
20260904123004 80 0 0.0 0.0 0.00 0.08 0.02 93 1012.1
20260904122903 80 0 0.0 0.0 0.00 0.08 0.02 93 1012.1
20260904122801 80 0 0.0 0.0 0.00 0.08 0.02 93 1012.1
20260904122702 80 0 0.0 0.0 0.00 0.08 0.02 93 1012.0
20260904122603 80 0 0.0 0.0 0.00 0.08 0.02 93 1012.1
20260904122504 80 0 0.0 0.0 0.00 0.08 0.02 93 1012.0
20260904122403 80 0 0.0 0.0 0.00 0.08 0.02 93 1012.0
20260904122306 80 0 0.0 0.0 0.00 0.08 0.02 93 1012.0
20260904122203 80 0 0.0 0.0 0.00 0.08 0.02 93 1012.0
20260904122103 80 0 0.0 0.0 0.00 0.08 0.02 93 1011.9
20260904122003 80 0 0.0 0.0 0.00 0.08 0.02 93 1011.9
20260904121903 80 0 0.0 0.0 0.00 0.08 0.02 93 1011.9
20260904121804 80 0 0.0 0.0 0.00 0.08 0.02 93 1011.9
20260904121703 80 0 0.0 0.0 0.00 0.08 0.02 93 1011.9
20260904121604 80 0 0.0 0.0 0.00 0.08 0.02 93 1011.9
20260904121503 80 0 0.0 0.0 0.00 0.08 0.02 93 1011.9
20260904121403 80 0 0.0 0.0 0.00 0.08 0.02 93 1011.8
20260904121304 80 0 0.0 0.0 0.00 0.08 0.02 93 1011.8
20260904121203 80 0 0.0 0.0 0.00 0.08 0.02 93 1011.8
20260904121103 80 0 0.0 0.0 0.00 0.08 0.02 93 1011.8
20260904121004 80 0 0.0 0.0 0.00 0.08 0.02 93 1011.8
20260904120903 80 0 0.0 0.0 0.00 0.08 0.02 93 1011.8
20260904120803 80 0 0.0 0.0 0.00 0.08 0.02 93 1011.7
20260904120703 80 0 0.0 0.0 0.00 0.08 0.02 93 1011.8
20260904120603 80 0 0.0 0.0 0.00 0.08 0.02 93 1011.8
20260904120504 80 0 0.0 0.0 0.00 0.08 0.02 93 1011.8
20260904120404 80 0 0.0 0.0 0.00 0.08 0.02 93 1011.8
20260904120303 80 0 0.0 0.0 0.00 0.08 0.02 93 1011.8
20260904120202 80 0 0.0 0.0 0.00 0.08 0.02 93 1011.8
20260904120003 80 0 0.0 0.0 0.00 0.08 0.02 93 1011.8
20260904115902 80 0 0.0 0.0 0.00 0.08 0.02 93 1011.8
20260904115804 80 0 0.0 0.0 0.00 0.08 0.02 93 1011.8
20260904115702 80 0 0.0 0.0 0.00 0.08 0.02 93 1011.8
20260904115602 80 0 0.0 0.0 0.00 0.08 0.02 93 1011.8
20260904115505 80 0 0.0 0.0 0.00 0.08 0.02 93 1011.8
20260904115403 80 0 0.0 0.0 0.00 0.08 0.02 93 1011.8
20260904115306 80 0 0.0 0.0 0.00 0.08 0.02 93 1011.8
20260904115202 80 0 0.0 0.0 0.00 0.08 0.02 93 1011.7
20260904115102 80 0 0.0 0.0 0.00 0.08 0.02 93 1011.8
20260904115006 80 0 0.0 0.0 0.00 0.08 0.02 93 1011.7
20260904114902 80 0 0.0 0.0 0.00 0.08 0.02 93 1011.8
20260904114804 80 0 0.0 0.0 0.00 0.08 0.02 93 1011.7
20260904114703 80 0 0.0 0.0 0.00 0.08 0.02 93 1011.7
20260904114603 80 0 0.0 0.0 0.00 0.08 0.02 93 1011.7
20260904114503 80 0 0.0 0.0 0.00 0.08 0.02 93 1011.8
20260904114402 80 0 0.0 0.0 0.00 0.08 0.02 93 1011.7
20260904114303 80 0 0.0 0.0 0.00 0.08 0.02 93 1011.7
20260904114202 80 0 0.0 0.0 0.00 0.08 0.02 93 1011.8
20260904114103 80 0 0.0 0.0 0.00 0.08 0.02 93 1011.8
20260904114000 80 0 0.0 0.0 0.00 0.08 0.02 93 1011.8
20260904113900 80 0 0.0 0.0 0.00 0.08 0.02 93 1011.8
20260904113758 80 0 0.0 0.0 0.00 0.08 0.02 93 1011.8
20260904113653 80 0 0.0 0.0 0.00 0.08 0.02 93 1011.8
20260904113552 80 0.0 0.0 0.00 0.08 0.02 93 1011.9
20260904113432 80 0 0.0 0.0 0.00 0.08 0.02 93 1011.8
20260904113332 80 0 0.0 0.0 0.00 0.08 0.02 93 1011.8
20260904113232 80 0 0.0 0.0 0.00 0.08 0.02 93 1011.8
20260904113131 80 0 0.0 0.0 0.00 0.08 0.02 93 1011.7
20260904113031 80 0 0.0 0.0 0.00 0.08 0.02 93 1011.8
20260904112933 80 0 0.0 0.0 0.00 0.08 0.02 93 1011.8
20260904112832 80 0 0.0 0.0 0.00 0.08 0.02 93 1011.8
20260904112732 80 0 0.0 0.0 0.00 0.08 0.02 93 1011.8
20260904112632 80 0 0.0 0.0 0.00 0.08 0.02 93 1011.7
20260904112530 80 0 0.0 0.0 0.00 0.08 0.02 93 1011.7
20260904112433 80 0 0.0 0.0 0.00 0.08 0.02 93 1011.8
20260904112332 80 0 0.0 0.0 0.00 0.08 0.02 93 1011.8
20260904112230 80 0 0.0 0.0 0.00 0.08 0.02 93 1011.7
20260904112132 80 0 0.0 0.0 0.00 0.08 0.02 93 1011.8
20260904112031 80 0 0.0 0.0 0.00 0.08 0.02 93 1011.8
20260904111932 80 0 0.0 0.0 0.00 0.08 0.02 93 1011.8
20260904111832 80 0 0.0 0.0 0.00 0.08 0.02 93 1011.8
20260904111732 80 0 0.0 0.0 0.00 0.08 0.02 93 1011.9
20260904111632 80 0 0.0 0.0 0.00 0.08 0.02 93 1011.9
20260904111533 80 0 0.0 0.0 0.00 0.08 0.02 93 1011.9
20260904111432 80 0 0.0 0.0 0.00 0.08 0.02 93 1011.9
20260904111331 80 0 0.0 0.0 0.00 0.08 0.02 93 1011.9
20260904111231 80 0 0.0 0.0 0.00 0.08 0.02 93 1011.9
20260904111132 80 0 0.0 0.0 0.00 0.08 0.02 93 1011.8
20260904111032 80 0 0.0 0.0 0.00 0.08 0.02 93 1011.9
20260904110931 80 0 0.0 0.0 0.00 0.08 0.02 93 1011.9
20260904110825 80 0 0.0 0.0 0.00 0.08 0.02 93 1011.9
20260904110725 80 0 0.0 0.0 0.00 0.08 0.02 93 1011.9
20260904110624 80 0 0.0 0.0 0.00 0.08 0.02 93 1011.8
20260904110523 80 0 0.0 0.0 0.00 0.08 0.02 93 1011.9
20260904110425 80 0 0.0 0.0 0.00 0.08 0.02 93 1011.9
20260904110325 80 0 0.0 0.0 0.00 0.08 0.02 93 1011.9
20260904110225 80 0 0.0 0.0 0.00 0.08 0.02 93 1011.8
20260904110125 80 0 0.0 0.0 0.00 0.08 0.02 93 1011.9
20260904110023 80 0 0.0 0.0 0.00 0.08 0.02 93 1011.9
20260904105924 80 0 0.0 0.0 0.00 0.08 0.02 93 1011.8
20260904105823 80 0 0.0 0.0 0.00 0.08 0.02 93 1011.8
20260904105724 80 0 0.0 0.0 0.00 0.08 0.02 93 1011.8
20260904105624 80 0 0.0 0.0 0.00 0.08 0.02 93 1011.8
20260904105525 80 0 0.0 0.0 0.00 0.08 0.02 93 1011.8
20260904105423 80 0 0.0 0.0 0.00 0.08 0.02 93 1011.8
20260904105324 80 0 0.0 0.0 0.00 0.08 0.02 93 1011.8
20260904105224 80 0 0.0 0.0 0.00 0.08 0.02 93 1011.8
20260904105122 80 0 0.0 0.0 0.00 0.08 0.02 93 1011.8
20260904105024 80 0 0.0 0.0 0.00 0.08 0.02 93 1011.7
20260904104926 80 0 0.0 0.0 0.00 0.08 0.02 93 1011.8
20260904104824 80 0 0.0 0.0 0.00 0.08 0.02 93 1011.8
20260904104725 80 0 0.0 0.0 0.00 0.08 0.02 93 1011.8
20260904104623 80 0 0.0 0.0 0.00 0.08 0.02 93 1011.8
20260904104524 80 0 0.0 0.0 0.00 0.08 0.02 93 1011.8
20260904104424 80 0 0.0 0.0 0.00 0.08 0.02 93 1011.8
20260904104324 80 0 0.0 0.0 0.00 0.08 0.02 93 1011.7
20260904104225 80 0 0.0 0.0 0.00 0.08 0.02 93 1011.8
20260904104124 80 0 0.0 0.0 0.00 0.08 0.02 93 1011.8
20260904104025 80 0 0.0 0.0 0.00 0.08 0.02 93 1011.7
20260904103923 80 0 0.0 0.0 0.00 0.08 0.02 93 1011.7
20260904103825 80 0 0.0 0.0 0.00 0.08 0.02 93 1011.6
20260904103723 80 0 0.0 0.0 0.00 0.08 0.02 93 1011.7
20260904103625 80 0 0.0 0.0 0.00 0.08 0.02 93 1011.7
20260904103515 80 0 0.0 0.0 0.00 0.08 0.02 93 1011.7
20260904103409 80 0 0.0 0.0 0.00 0.08 0.02 93 1011.7
20260904103309 80 0 0.0 0.0 0.00 0.08 0.02 93 1011.6
20260904103207 80 0 0.0 0.0 0.00 0.08 0.02 93 1011.6
20260904103104 80 0 0.0 0.0 0.00 0.08 0.02 93 1011.6
20260904103002 80 0 0.0 0.0 0.00 0.08 0.02 93 1011.6
20260904102904 80 0 0.0 0.0 0.00 0.08 0.02 93 1011.6
20260904102803 80 0 0.0 0.0 0.00 0.08 0.02 93 1011.5
20260904102703 80 0 0.0 0.0 0.00 0.08 0.02 93 1011.5
20260904102603 80 0 0.0 0.0 0.00 0.08 0.02 93 1011.6
20260904102504 80 0 0.0 0.0 0.00 0.08 0.02 93 1011.5
20260904102403 80 0 0.0 0.0 0.00 0.08 0.02 93 1011.5
20260904102306 80 0 0.0 0.0 0.00 0.08 0.02 93 1011.5
20260904102203 80 0 0.0 0.0 0.00 0.08 0.02 93 1011.5
20260904102104 80 0 0.0 0.0 0.00 0.08 0.02 92 1011.5
20260904102002 80 0 0.0 0.0 0.00 0.08 0.02 92 1011.4
20260904101903 80 0 0.0 0.0 0.00 0.08 0.02 92 1011.4
20260904101804 80 0 0.0 0.0 0.00 0.08 0.02 92 1011.4
20260904101703 80 0 0.0 0.0 0.00 0.08 0.02 92 1011.4
20260904101602 80 0 0.0 0.0 0.00 0.08 0.02 92 1011.4
20260904101504 80 0 0.0 0.0 0.00 0.08 0.02 92 1011.4
20260904101404 80 0 0.0 0.0 0.00 0.08 0.02 92 1011.4
20260904101303 80 0 0.0 0.0 0.01 0.08 0.02 92 1011.4
20260904101203 80 0 0.0 0.0 0.01 0.08 0.02 92 1011.4
20260904101103 80 0 0.0 0.0 0.01 0.08 0.02 92 1011.4
20260904101004 80 0 0.0 0.0 0.01 0.08 0.02 92 1011.3
20260904100903 80 0 0.0 0.0 0.01 0.08 0.02 92 1011.3
20260904100802 80 0 0.0 0.0 0.01 0.08 0.02 92 1011.3
20260904100704 80 0 0.0 0.0 0.01 0.08 0.02 92 1011.3
20260904100603 80 0 0.0 0.0 0.01 0.08 0.02 92 1011.4
20260904100501 80 0 0.0 0.0 0.01 0.08 0.02 92 1011.3
20260904100403 80 0 0.0 0.0 0.01 0.08 0.02 92 1011.3
20260904100302 80 0 0.0 0.0 0.01 0.08 0.02 92 1011.3
20260904100203 80 0 0.0 0.0 0.01 0.08 0.02 92 1011.3
20260904100103 80 0 0.0 0.0 0.01 0.08 0.02 92 1011.3
20260904100003 80 0 0.0 0.0 0.01 0.08 0.02 92 1011.2
20260904095902 81 0 0.0 0.0 0.01 0.08 0.02 92 1011.3
20260904095802 80 0 0.0 0.0 0.01 0.08 0.02 92 1011.3
20260904095704 81 0 0.0 0.0 0.01 0.08 0.02 92 1011.2
20260904095602 81 0 0.0 0.0 0.01 0.08 0.02 92 1011.2
20260904095504 80 0 0.0 0.0 0.01 0.08 0.02 92 1011.3
20260904095402 80 0 0.0 0.0 0.01 0.08 0.02 92 1011.2
20260904095306 80 0 0.0 0.0 0.01 0.08 0.02 92 1011.2
20260904095203 81 0 0.0 0.0 0.02 0.08 0.02 92 1011.3
20260904095102 80 0 0.0 0.0 0.02 0.08 0.02 92 1011.2
20260904095005 81 0 0.0 0.0 0.02 0.08 0.02 92 1011.2
20260904094904 80 0 0.0 0.0 0.02 0.08 0.02 92 1011.2
20260904094803 80 0 0.0 0.0 0.02 0.08 0.02 92 1011.3
20260904094703 80 0 0.0 0.0 0.02 0.08 0.02 92 1011.2
20260904094603 80 0 0.0 0.0 0.02 0.08 0.02 92 1011.2
20260904094502 80 0 0.0 0.0 0.02 0.08 0.02 92 1011.1
20260904094404 80 0 0.0 0.0 0.02 0.08 0.02 92 1011.2
20260904094303 80 0 0.0 0.0 0.02 0.08 0.02 92 1011.1
20260904094204 81 0 0.0 0.0 0.02 0.08 0.02 92 1011.1
20260904094104 81 0 0.0 0.0 0.02 0.08 0.02 92 1011.1
20260904094003 81 0 0.0 0.0 0.02 0.08 0.02 92 1011.2
20260904093903 81 0 0.0 0.0 0.02 0.08 0.02 92 1011.1
20260904093802 81 0 0.0 0.0 0.02 0.08 0.02 92 1011.1
20260904093703 81 0 0.0 0.0 0.02 0.08 0.02 92 1011.0
20260904093603 81 0 0.0 0.0 0.02 0.08 0.02 92 1011.2
20260904093502 81 0 0.0 0.0 0.02 0.08 0.02 92 1011.2
20260904093402 81 0 0.0 0.0 0.02 0.08 0.02 92 1011.1
20260904093302 81 0 0.0 0.0 0.02 0.08 0.02 92 1011.1
20260904093202 81 0 0.0 0.0 0.02 0.08 0.02 92 1011.2
20260904093102 81 0 0.0 0.0 0.02 0.08 0.02 92 1011.1
20260904093003 81 0 0.0 0.0 0.02 0.08 0.02 92 1011.1
20260904092902 81 0 0.0 0.0 0.02 0.08 0.02 92 1011.1
20260904092803 81 0 0.0 0.0 0.02 0.08 0.02 92 1011.1
20260904092703 81 0 0.0 0.0 0.02 0.08 0.02 91 1011.1
20260904092603 81 0 0.0 0.0 0.02 0.08 0.02 91 1011.1
20260904092504 81 0 0.0 0.0 0.02 0.08 0.02 91 1011.1
20260904092403 81 0 0.0 0.0 0.02 0.08 0.02 91 1011.1
20260904092306 81 0 0.0 0.0 0.02 0.08 0.02 91 1011.1
20260904092204 81 0 0.0 0.0 0.02 0.08 0.02 91 1011.2
20260904092103 81 0 0.0 0.0 0.02 0.08 0.02 91 1011.2
20260904092003 81 0 0.0 0.0 0.02 0.08 0.02 91 1011.1
20260904091902 81 0 0.0 0.0 0.02 0.08 0.02 91 1011.1
20260904091745 81 0 0.0 0.0 0.02 0.08 0.02 91 1011.2
20260904091634 81 0 0.0 0.0 0.02 0.08 0.02 91 1011.2
20260904091532 81 0 0.0 0.0 0.02 0.08 0.02 91 1011.2
20260904091432 81 0 0.0 0.0 0.02 0.08 0.02 91 1011.1
20260904091333 81 0 0.0 0.0 0.02 0.07 0.02 91 1011.2
20260904091232 81 0 0.0 0.0 0.02 0.07 0.02 91 1011.1
20260904091131 81 0 0.0 0.0 0.02 0.07 0.02 91 1011.2
20260904091033 81 0 0.0 0.0 0.02 0.07 0.02 91 1011.2
20260904090931 81 0 0.0 0.0 0.02 0.07 0.02 91 1011.2
20260904090832 81 0 0.0 0.0 0.02 0.07 0.02 91 1011.2
20260904090731 81 0 0.0 0.0 0.02 0.07 0.02 91 1011.2
20260904090632 81 0 0.0 0.0 0.02 0.07 0.02 91 1011.2
20260904090532 81 0 0.0 0.0 0.02 0.07 0.02 91 1011.3
20260904090433 81 0 0.0 0.0 0.02 0.07 0.02 91 1011.3
20260904090332 81 0 0.0 0.0 0.02 0.07 0.02 91 1011.3
20260904090233 81 0 0.0 0.0 0.02 0.07 0.02 91 1011.2
20260904090120 81 0 0.0 0.0 0.02 0.07 0.02 91 1011.2
20260904090021 81 0 0.0 0.0 0.02 0.07 0.02 91 1011.3
20260904085919 81 0 0.0 0.0 0.02 0.07 0.02 91 1011.2
20260904085820 81 0 0.0 0.0 0.02 0.07 0.02 91 1011.2
20260904085720 81 0 0.0 0.0 0.02 0.07 0.02 91 1011.2
20260904085619 81 0 0.0 0.0 0.02 0.07 0.02 91 1011.2
20260904085518 81 0 0.0 0.0 0.02 0.07 0.02 90 1011.2
20260904085419 81 0 0.0 0.0 0.02 0.07 0.02 90 1011.3
20260904085319 81 0 0.0 0.0 0.02 0.07 0.02 90 1011.3
20260904085220 81 0 0.0 0.0 0.01 0.06 0.01 90 1011.2
20260904085120 81 0 0.0 0.0 0.01 0.06 0.01 90 1011.2
20260904085019 81 0 0.0 0.0 0.01 0.06 0.01 90 1011.2
20260904084920 81 0 0.0 0.0 0.01 0.06 0.01 90 1011.2
20260904084819 81 0 0.0 0.0 0.01 0.06 0.01 90 1011.2
20260904084718 82 0 0.0 0.0 0.01 0.06 0.01 90 1011.2
20260904084619 82 0 0.0 0.0 0.01 0.06 0.01 90 1011.2
20260904084518 82 0 0.0 0.0 0.01 0.06 0.01 89 1011.2
20260904084419 82 0 0.0 0.0 0.01 0.06 0.01 89 1011.2
20260904084319 82 0 0.0 0.0 0.01 0.06 0.01 89 1011.2
20260904084219 82 0 0.0 0.0 0.01 0.06 0.01 89 1011.2
20260904084118 82 0 0.0 0.0 0.00 0.06 0.00 89 1011.2
20260904084020 82 0 0.0 0.0 0.00 0.06 0.00 89 1011.2
20260904083919 82 0 0.0 0.0 0.00 0.06 0.00 89 1011.3
20260904083818 82 0 0.0 0.0 0.00 0.06 0.00 89 1011.2
20260904083718 82 0 0.0 0.0 0.00 0.06 0.00 89 1011.3
20260904083620 82 0 0.0 0.0 0.00 0.06 0.00 89 1011.2
20260904083519 82 0 0.0 0.0 0.00 0.06 0.00 89 1011.2
20260904083419 82 0 0.0 0.0 0.00 0.06 0.00 89 1011.3
20260904083319 82 0 0.0 0.0 0.00 0.06 0.00 89 1011.3
20260904083219 82 0 0.0 0.0 0.00 0.06 0.00 89 1011.3
20260904083118 82 0 0.0 0.0 0.00 0.06 0.00 89 1011.3
20260904083018 82 0 0.0 0.0 0.00 0.06 0.00 89 1011.3
20260904082919 82 0 0.0 0.0 0.00 0.06 0.00 89 1011.3
20260904082818 82 0 0.0 0.0 0.00 0.06 0.00 88 1011.3
20260904082719 82 0 0.0 0.0 0.00 0.06 0.00 88 1011.3
20260904082618 82 0 0.0 2.0 0.00 0.06 0.00 88 1011.3
20260904082521 82 0 0.0 2.0 0.00 0.06 0.00 88 1011.3
20260904082418 82 0 0.0 2.0 0.00 0.06 0.00 88 1011.3
20260904082318 82 0 0.0 3.0 0.00 0.06 0.00 88 1011.3
20260904082218 82 0 0.0 3.0 0.00 0.06 0.00 88 1011.3
20260904082117 82 0 0.0 3.0 0.00 0.06 0.00 88 1011.3
20260904082018 82 0 0.0 3.0 0.00 0.06 0.00 88 1011.3
20260904081918 82 0 0.0 3.0 0.00 0.06 0.00 88 1011.3
20260904081819 82 0 0.0 3.0 0.00 0.06 0.00 88 1011.3
20260904081720 82 0 1.0 5.0 0.00 0.06 0.00 88 1011.3
20260904081618 82 0 1.0 5.0 0.00 0.06 0.00 88 1011.3
20260904081519 82 0 1.0 5.0 0.00 0.06 0.00 88 1011.2
20260904081420 82 0 0.0 5.0 0.00 0.06 0.00 88 1011.3
20260904081319 82 0 0.0 5.0 0.00 0.06 0.00 88 1011.2
20260904081219 82 0 0.0 5.0 0.00 0.06 0.00 88 1011.2
20260904081118 82 0 0.0 5.0 0.00 0.06 0.00 88 1011.3
20260904081020 82 0 1.0 5.0 0.00 0.06 0.00 88 1011.3
20260904080919 82 0 1.0 5.0 0.00 0.06 0.00 88 1011.3
20260904080818 82 0 1.0 5.0 0.00 0.06 0.00 88 1011.3
20260904080717 82 0 1.0 4.0 0.00 0.06 0.00 88 1011.3
20260904080618 82 0 1.0 3.0 0.00 0.06 0.00 88 1011.3
20260904080519 82 0 1.0 3.0 0.00 0.06 0.00 88 1011.3
20260904080418 82 0 0.0 3.0 0.00 0.06 0.00 88 1011.3
20260904080317 82 0 0.0 3.0 0.00 0.06 0.00 88 1011.3
20260904080218 82 0 0.0 3.0 0.00 0.06 0.00 88 1011.3
20260904080119 82 0 0.0 3.0 0.00 0.06 0.00 88 1011.3
20260904080017 82 0 0.0 3.0 0.00 0.06 0.00 88 1011.4
20260904075917 82 0 1.0 3.0 0.00 0.06 0.00 88 1011.4
20260904075817 82 0 2.0 3.0 0.00 0.06 0.00 88 1011.3
20260904075719 82 0 1.0 6.0 0.00 0.06 0.00 88 1011.3
20260904075620 82 0 1.0 6.0 0.00 0.06 0.00 88 1011.3
20260904075517 82 0 1.0 6.0 0.00 0.06 0.00 88 1011.2
20260904075419 82 0 2.0 6.0 0.00 0.06 0.00 88 1011.3
20260904075318 82 0 3.0 6.0 0.00 0.06 0.00 88 1011.3
20260904075218 82 0 3.0 6.0 0.00 0.06 0.00 88 1011.3
20260904075118 82 0 4.0 6.0 0.00 0.06 0.00 88 1011.3
20260904075020 82 0 4.0 6.0 0.00 0.06 0.00 88 1011.3
20260904074918 82 0 4.0 6.0 0.00 0.06 0.00 88 1011.3
20260904074819 82 0 4.0 6.0 0.00 0.06 0.00 88 1011.3
20260904074717 82 0 3.0 6.0 0.00 0.06 0.00 88 1011.3
20260904074619 82 0 2.0 6.0 0.00 0.06 0.00 88 1011.3
20260904074518 82 0 1.0 4.0 0.00 0.06 0.00 88 1011.3
20260904074420 82 0 2.0 4.0 0.00 0.06 0.00 88 1011.2
20260904074317 82 0 2.0 4.0 0.00 0.06 0.00 88 1011.3
20260904074217 82 0 2.0 4.0 0.00 0.06 0.00 88 1011.3
20260904074118 82 0 1.0 4.0 0.00 0.06 0.00 88 1011.3
20260904074019 82 0 1.0 4.0 0.00 0.06 0.00 88 1011.3
20260904073918 82 0 2.0 4.0 0.00 0.06 0.00 88 1011.3
20260904073817 82 0 2.0 4.0 0.00 0.06 0.00 88 1011.3
20260904073718 82 0 2.0 4.0 0.00 0.06 0.00 88 1011.3
20260904073618 82 0 2.0 3.0 0.00 0.06 0.00 88 1011.3
20260904073517 82 0 0.0 3.0 0.00 0.06 0.00 88 1011.3
20260904073418 82 0 0.0 3.0 0.00 0.06 0.00 88 1011.3
20260904073318 82 0 0.0 3.0 0.00 0.06 0.00 88 1011.3
20260904073218 82 0 1.0 3.0 0.00 0.06 0.00 88 1011.3
20260904073117 82 0 1.0 3.0 0.00 0.06 0.00 88 1011.4
20260904073018 82 0 1.0 3.0 0.00 0.06 0.00 88 1011.3
20260904072918 82 0 0.0 3.0 0.00 0.06 0.00 88 1011.4
20260904072818 82 0 0.0 3.0 0.00 0.06 0.00 88 1011.4
20260904072719 82 0 1.0 3.0 0.00 0.06 0.00 88 1011.3
20260904072619 82 0 1.0 3.0 0.00 0.06 0.00 88 1011.4
20260904072518 82 0 1.0 3.0 0.00 0.06 0.00 88 1011.4
20260904072418 82 0 3.0 3.0 0.00 0.06 0.00 88 1011.4
20260904072318 82 0 0.0 2.0 0.00 0.06 0.00 88 1011.4
20260904072218 82 0 0.0 2.0 0.00 0.06 0.00 88 1011.5
20260904072118 82 0 0.0 2.0 0.00 0.06 0.00 88 1011.5
20260904072018 82 0 0.0 2.0 0.00 0.06 0.00 88 1011.5
20260904071909 82 0 0.0 0.0 0.00 0.06 0.00 88 1011.5
20260904071808 82 0 0.0 0.0 0.00 0.06 0.00 88 1011.5
20260904071706 82 0 0.0 2.0 0.00 0.06 0.00 88 1011.4
20260904071604 82 0 0.0 4.0 0.00 0.06 0.00 88 1011.4
20260904071504 82 0 0.0 4.0 0.00 0.06 0.00 88 1011.4
20260904071404 82 0 0.0 4.0 0.00 0.06 0.00 88 1011.4
20260904071304 82 0 0.0 4.0 0.00 0.06 0.00 88 1011.4
20260904071201 82 0 0.0 4.0 0.00 0.06 0.00 88 1011.5
20260904071104 82 0 0.0 4.0 0.00 0.06 0.00 88 1011.4
20260904071003 82 0 0.0 5.0 0.00 0.06 0.00 88 1011.5
20260904070904 82 0 0.0 5.0 0.00 0.06 0.00 87 1011.4
20260904070802 82 0 2.0 5.0 0.00 0.06 0.00 87 1011.5
20260904070702 83 0 2.0 5.0 0.00 0.06 0.00 87 1011.5
20260904070603 83 0 2.0 5.0 0.00 0.06 0.00 87 1011.4
20260904070502 83 0 2.0 5.0 0.00 0.06 0.00 87 1011.5
20260904070403 83 0 2.0 5.0 0.00 0.06 0.00 87 1011.5
20260904070302 83 0 2.0 5.0 0.00 0.06 0.00 87 1011.4
20260904070202 83 0 3.0 5.0 0.00 0.06 0.00 87 1011.5
20260904070002 83 0 3.0 5.0 0.00 0.06 0.00 87 1011.5
20260904065902 83 0 2.0 5.0 0.00 0.06 0.00 87 1011.5
20260904065802 83 0 2.0 5.0 0.00 0.06 0.00 87 1011.5
20260904065701 83 0 3.0 5.0 0.00 0.06 0.00 87 1011.5
20260904065603 83 0 3.0 5.0 0.00 0.06 0.00 87 1011.5
20260904065502 83 0 4.0 5.0 0.00 0.06 0.00 87 1011.5
20260904065402 83 0 4.0 5.0 0.00 0.06 0.00 87 1011.5
20260904065306 83 0 3.0 5.0 0.00 0.06 0.00 87 1011.5
20260904065203 83 0 3.0 5.0 0.00 0.06 0.00 87 1011.5
20260904065104 83 0 4.0 5.0 0.00 0.06 0.00 87 1011.4
20260904065004 83 0 2.0 3.0 0.00 0.06 0.00 87 1011.5
20260904064904 83 0 2.0 3.0 0.00 0.06 0.00 87 1011.4
20260904064804 83 0 2.0 3.0 0.00 0.06 0.00 87 1011.5
20260904064703 83 0 2.0 3.0 0.00 0.06 0.00 87 1011.5
20260904064603 83 0 2.0 3.0 0.00 0.06 0.00 87 1011.5
20260904064504 83 0 2.0 3.0 0.00 0.06 0.00 87 1011.5
20260904064403 83 0 2.0 3.0 0.00 0.06 0.00 87 1011.5
20260904064303 83 0 2.0 3.0 0.00 0.06 0.00 87 1011.5
20260904064204 83 0 2.0 3.0 0.00 0.06 0.00 87 1011.6
20260904064104 83 0 2.0 4.0 0.00 0.06 0.00 87 1011.5
20260904064003 83 0 2.0 4.0 0.00 0.06 0.00 87 1011.6
20260904063902 83 0 2.0 4.0 0.00 0.06 0.00 87 1011.6
20260904063803 83 0 2.0 4.0 0.00 0.06 0.00 87 1011.5
20260904063702 83 0 2.0 4.0 0.00 0.06 0.00 87 1011.5
20260904063603 83 0 2.0 4.0 0.00 0.06 0.00 87 1011.6
20260904063503 83 0 2.0 4.0 0.00 0.06 0.00 87 1011.5
20260904063403 83 0 2.0 4.0 0.00 0.06 0.00 87 1011.6
20260904063302 83 0 2.0 4.0 0.00 0.06 0.00 87 1011.6
20260904063204 83 0 3.0 4.0 0.00 0.06 0.00 87 1011.6
20260904063103 83 0 3.0 4.0 0.00 0.06 0.00 87 1011.6
20260904063004 83 0 1.0 4.0 0.00 0.06 0.00 87 1011.6
20260904062903 83 0 1.0 4.0 0.00 0.06 0.00 87 1011.6
20260904062804 83 0 1.0 4.0 0.00 0.06 0.00 87 1011.6
20260904062703 83 0 1.0 4.0 0.00 0.06 0.00 87 1011.6
20260904062604 83 0 1.0 4.0 0.00 0.06 0.00 87 1011.6
20260904062505 83 0 1.0 4.0 0.00 0.06 0.00 87 1011.5
20260904062403 83 0 1.0 4.0 0.00 0.06 0.00 87 1011.6
20260904062306 83 0 2.0 4.0 0.00 0.06 0.00 87 1011.6
20260904062202 83 0 2.0 4.0 0.00 0.06 0.00 87 1011.6
20260904062102 83 0 0.0 3.0 0.00 0.06 0.00 87 1011.5
20260904062004 83 0 0.0 4.0 0.00 0.06 0.00 87 1011.6
20260904061902 83 0 0.0 5.0 0.00 0.06 0.00 87 1011.6
20260904061803 83 0 1.0 5.0 0.00 0.06 0.00 87 1011.5
20260904061702 83 0 1.0 5.0 0.00 0.06 0.00 87 1011.6
20260904061602 83 0 0.0 5.0 0.00 0.06 0.00 87 1011.5
20260904061504 83 0 1.0 5.0 0.00 0.06 0.00 87 1011.5
20260904061403 83 0 2.0 5.0 0.00 0.06 0.00 87 1011.6
20260904061303 83 0 2.0 5.0 0.00 0.06 0.00 87 1011.6
20260904061203 83 0 2.0 5.0 0.00 0.06 0.00 87 1011.5
20260904061102 83 0 3.0 5.0 0.00 0.06 0.00 87 1011.6
20260904061005 83 0 2.0 5.0 0.00 0.06 0.00 87 1011.6
20260904060902 83 0 2.0 5.0 0.00 0.06 0.00 87 1011.6
20260904060804 83 0 3.0 5.0 0.00 0.06 0.00 87 1011.6
20260904060702 83 0 3.0 5.0 0.00 0.06 0.00 87 1011.6
20260904060603 83 0 2.0 5.0 0.00 0.06 0.00 87 1011.6
20260904060504 83 0 1.0 5.0 0.00 0.06 0.00 87 1011.6
20260904060402 83 0 1.0 6.0 0.00 0.06 0.00 87 1011.6
20260904060303 83 0 3.0 6.0 0.00 0.06 0.00 87 1011.6
20260904060204 83 0 3.0 6.0 0.00 0.06 0.00 87 1011.7
20260904060004 83 0 2.0 6.0 0.00 0.06 0.00 87 1011.7
20260904055903 83 0 2.0 6.0 0.00 0.06 0.00 87 1011.7
20260904055804 83 0 4.0 6.0 0.00 0.06 0.00 87 1011.6
20260904055703 83 0 4.0 6.0 0.00 0.06 0.00 87 1011.6
20260904055604 83 0 4.0 6.0 0.00 0.06 0.00 87 1011.7
20260904055504 83 0 4.0 6.0 0.00 0.06 0.00 87 1011.7
20260904055403 83 0 3.0 6.0 0.00 0.06 0.00 87 1011.7
20260904055306 83 0 2.0 6.0 0.00 0.06 0.00 87 1011.7
20260904055202 83 0 2.0 6.0 0.00 0.06 0.00 87 1011.6
20260904055103 83 0 2.0 6.0 0.00 0.06 0.00 87 1011.6
20260904055002 83 0 3.0 6.0 0.00 0.06 0.00 87 1011.7
20260904054904 83 0 4.0 6.0 0.00 0.06 0.00 87 1011.6
20260904054802 83 0 2.0 6.0 0.00 0.06 0.00 87 1011.6
20260904054703 83 0 1.0 6.0 0.00 0.06 0.00 88 1011.5
20260904054604 83 0 2.0 6.0 0.00 0.06 0.00 88 1011.6
20260904054502 83 0 3.0 6.0 0.00 0.06 0.00 88 1011.6
20260904054403 83 0 4.0 6.0 0.00 0.06 0.00 88 1011.5
20260904054303 83 0 2.0 5.0 0.00 0.06 0.00 88 1011.6
20260904054203 83 0 3.0 5.0 0.00 0.06 0.00 88 1011.5
20260904054103 83 0 3.0 5.0 0.00 0.06 0.00 88 1011.5
20260904054004 83 0 3.0 5.0 0.00 0.06 0.00 88 1011.6
20260904053839 83 0 3.0 5.0 0.00 0.06 0.00 88 1011.6
20260904053738 83 0 1.0 5.0 0.00 0.06 0.00 88 1011.6
20260904053636 83 0 0.0 4.0 0.00 0.06 0.00 88 1011.7
20260904053535 83 0 2.0 4.0 0.00 0.06 0.00 88 1011.7
20260904053432 83 0 2.0 4.0 0.00 0.06 0.00 87 1011.7
20260904053331 83 0 1.0 4.0 0.00 0.06 0.00 87 1011.7
20260904053230 83 0 1.0 4.0 0.00 0.06 0.00 87 1011.7
20260904053132 83 0 1.0 3.0 0.00 0.06 0.00 88 1011.7
20260904053032 83 0 2.0 3.0 0.00 0.06 0.00 87 1011.7
20260904052932 0 0.0 0.0 0.00 0.06 0.00 1011.7
20260904052832 0 0.0 0.0 0.00 0.06 0.00 1011.7
20260904052732 0 0.0 0.0 0.00 0.06 0.00 1011.7
20260904052631 0 0.0 0.0 0.00 0.06 0.00 1011.5
20260904052532 0 0.0 0.0 0.00 0.06 0.00 1011.6
20260904052433 83 0 0.0 0.0 0.00 0.06 0.00 87 1011.6
20260904052332 83 0 0.0 0.0 0.00 0.06 0.00 87 1011.5
20260904052233 83 0 0.0 0.0 0.00 0.06 0.00 87 1011.5
20260904052131 83 0 0.0 0.0 0.00 0.06 0.00 87 1011.5
20260904052032 83 0 0.0 3.0 0.00 0.06 0.00 87 1011.5
20260904051932 83 0 0.0 4.0 0.00 0.06 0.00 87 1011.5
20260904051832 83 0 0.0 4.0 0.00 0.06 0.00 87 1011.5
20260904051733 83 0 0.0 4.0 0.00 0.06 0.00 87 1011.5
20260904051632 83 0 0.0 4.0 0.00 0.06 0.00 87 1011.5
20260904051511 83 0 0.0 5.0 0.00 0.06 0.00 87 1011.5
20260904051408 83 0 0.0 5.0 0.00 0.06 0.00 87 1011.5
20260904051310 83 0 0.0 5.0 0.00 0.06 0.00 87 1011.5
20260904051208 83 0 1.0 5.0 0.00 0.06 0.00 87 1011.5
20260904051110 83 0 2.0 5.0 0.00 0.06 0.00 87 1011.5
20260904051009 83 0 3.0 5.0 0.00 0.06 0.00 87 1011.5
20260904050909 83 0 3.0 5.0 0.00 0.06 0.00 87 1011.6
20260904050808 83 0 4.0 5.0 0.00 0.06 0.00 87 1011.5
20260904050709 83 0 3.0 5.0 0.00 0.06 0.00 87 1011.5
20260904050609 83 0 1.0 5.0 0.00 0.06 0.00 87 1011.5
20260904050508 83 0 1.0 5.0 0.00 0.06 0.00 87 1011.5
20260904050411 83 0 2.0 5.0 0.00 0.06 0.00 87 1011.5
20260904050309 83 0 2.0 5.0 0.00 0.06 0.00 87 1011.6
20260904050210 83 0 2.0 5.0 0.00 0.06 0.00 87 1011.5
20260904050105 83 0 2.0 5.0 0.00 0.06 0.00 86 1011.5
20260904050004 83 0 2.0 6.0 0.00 0.06 0.00 87 1011.5
20260904045903 83 0 2.0 6.0 0.00 0.06 0.06 86 1011.5
20260904045802 83 0 2.0 6.0 0.00 0.06 0.06 86 1011.5
20260904045703 83 0 2.0 6.0 0.00 0.06 0.06 86 1011.6
20260904045604 83 0 2.0 6.0 0.00 0.06 0.06 86 1011.6
20260904045504 83 0 2.0 6.0 0.00 0.06 0.06 86 1011.5
20260904045403 83 0 2.0 6.0 0.00 0.06 0.06 86 1011.6
20260904045306 83 0 3.0 6.0 0.00 0.06 0.06 86 1011.5
20260904045204 83 0 3.0 6.0 0.00 0.06 0.06 86 1011.6
20260904045103 83 0 3.0 6.0 0.00 0.06 0.06 86 1011.6
20260904045005 83 0 3.0 6.0 0.00 0.06 0.06 86 1011.6
20260904044904 83 0 3.0 6.0 0.00 0.06 0.06 86 1011.6
20260904044802 83 0 3.0 6.0 0.00 0.06 0.06 86 1011.6
20260904044702 83 0 3.0 6.0 0.00 0.06 0.06 86 1011.6
20260904044604 83 0 2.0 6.0 0.00 0.06 0.06 86 1011.7
20260904044505 83 0 2.0 6.0 0.00 0.06 0.06 86 1011.7
20260904044403 83 0 2.0 6.0 0.00 0.06 0.06 86 1011.6
20260904044303 83 0 4.0 6.0 0.00 0.06 0.06 86 1011.6
20260904044203 83 0 3.0 6.0 0.00 0.06 0.06 86 1011.7
20260904044104 83 0 2.0 5.0 0.00 0.06 0.06 86 1011.6
20260904044004 83 0 2.0 5.0 0.00 0.06 0.06 86 1011.6
20260904043902 83 0 1.0 5.0 0.00 0.06 0.06 86 1011.6
20260904043802 83 0 1.0 5.0 0.00 0.06 0.06 86 1011.6
20260904043704 83 0 1.0 5.0 0.00 0.06 0.06 86 1011.7
20260904043602 83 0 2.0 6.0 0.00 0.06 0.06 86 1011.6
20260904043502 83 0 2.0 6.0 0.00 0.06 0.06 86 1011.6
20260904043403 83 0 2.0 6.0 0.00 0.06 0.06 86 1011.7
20260904043303 83 0 2.0 6.0 0.00 0.06 0.06 86 1011.6
20260904043203 83 0 3.0 6.0 0.00 0.06 0.06 86 1011.7
20260904043102 83 0 3.0 6.0 0.00 0.06 0.06 86 1011.7
20260904043006 83 0 2.0 6.0 0.00 0.06 0.06 86 1011.7
20260904042904 83 0 2.0 6.0 0.00 0.06 0.06 86 1011.7
20260904042803 83 0 3.0 6.0 0.00 0.06 0.06 86 1011.7
20260904042704 83 0 3.0 6.0 0.00 0.06 0.06 86 1011.7